| time (UTC) | temp F | wind direction | speed MPH | gust MPH | rain 1hr in | rain 24hr in | rain mn in | humidity % | barometer mb |
| 20260507182221 | 64 | 329 | 1.0 | 5.0 | 0.01 | 0.15 | 0.07 | 52 | 1016.6 |
| 20260507182021 | 64 | 9 | 1.0 | 4.0 | 0.01 | 0.15 | 0.07 | 55 | 1016.5 |
| 20260507181821 | 64 | 23 | 1.0 | 4.0 | 0.01 | 0.15 | 0.07 | 53 | 1016.5 |
| 20260507181643 | 64 | 16 | 1.0 | 4.0 | 0.01 | 0.15 | 0.07 | 54 | 1016.5 |
| 20260507181421 | 64 | 23 | 1.0 | 4.0 | 0.01 | 0.15 | 0.07 | 53 | 1016.6 |
| 20260507181221 | 63 | 46 | 1.0 | 4.0 | 0.01 | 0.15 | 0.07 | 52 | 1016.6 |
| 20260507181021 | 63 | 30 | 1.0 | 4.0 | 0.01 | 0.15 | 0.07 | 54 | 1016.6 |
| 20260507180842 | 63 | 295 | 1.0 | 5.0 | 0.01 | 0.15 | 0.07 | 52 | 1016.7 |
| 20260507180622 | 63 | 283 | 1.0 | 5.0 | 0.01 | 0.15 | 0.07 | 52 | 1016.6 |
| 20260507180421 | 63 | 272 | 1.0 | 5.0 | 0.01 | 0.15 | 0.07 | 51 | 1016.6 |
| 20260507180221 | 63 | 270 | 2.0 | 5.0 | 0.01 | 0.15 | 0.07 | 50 | 1016.7 |
| 20260507180021 | 63 | 268 | 1.0 | 5.0 | 0.01 | 0.15 | 0.07 | 50 | 1016.7 |
| 20260507175822 | 63 | 266 | 1.0 | 5.0 | 0.01 | 0.15 | 0.07 | 53 | 1016.7 |
| 20260507175621 | 63 | 269 | 2.0 | 5.0 | 0.01 | 0.15 | 0.07 | 52 | 1016.7 |
| 20260507175443 | 63 | 273 | 2.0 | 5.0 | 0.01 | 0.15 | 0.07 | 51 | 1016.7 |
| 20260507175221 | 63 | 282 | 2.0 | 5.0 | 0.01 | 0.15 | 0.07 | 52 | 1016.8 |
| 20260507175021 | 63 | 284 | 2.0 | 5.0 | 0.01 | 0.15 | 0.07 | 51 | 1016.8 |
| 20260507174843 | 63 | 286 | 2.0 | 4.0 | 0.01 | 0.15 | 0.07 | 51 | 1016.8 |
| 20260507174621 | 63 | 285 | 2.0 | 4.0 | 0.01 | 0.15 | 0.07 | 51 | 1016.8 |
| 20260507174421 | 63 | 280 | 2.0 | 6.0 | 0.01 | 0.15 | 0.07 | 51 | 1016.9 |
| 20260507174221 | 63 | 278 | 2.0 | 6.0 | 0.01 | 0.15 | 0.07 | 51 | 1016.9 |
| 20260507174021 | 63 | 276 | 2.0 | 7.0 | 0.01 | 0.15 | 0.07 | 53 | 1016.9 |
| 20260507173821 | 63 | 276 | 1.0 | 7.0 | 0.01 | 0.15 | 0.07 | 50 | 1016.9 |
| 20260507173621 | 63 | 276 | 1.0 | 7.0 | 0.01 | 0.15 | 0.07 | 50 | 1017.0 |
| 20260507173442 | 63 | 279 | 1.0 | 7.0 | 0.01 | 0.15 | 0.07 | 52 | 1016.9 |
| 20260507173221 | 63 | 282 | 1.0 | 7.0 | 0.01 | 0.16 | 0.07 | 53 | 1017.0 |
| 20260507173021 | 63 | 296 | 1.0 | 5.0 | 0.00 | 0.15 | 0.06 | 52 | 1017.0 |
| 20260507172821 | 63 | 307 | 1.0 | 6.0 | 0.00 | 0.15 | 0.06 | 52 | 1017.1 |
| 20260507172621 | 63 | 24 | 1.0 | 6.0 | 0.00 | 0.15 | 0.06 | 53 | 1017.1 |
| 20260507172420 | 63 | 29 | 1.0 | 6.0 | 0.00 | 0.15 | 0.06 | 55 | 1017.1 |
| 20260507172221 | 63 | 30 | 2.0 | 6.0 | 0.01 | 0.15 | 0.06 | 53 | 1017.2 |
| 20260507172021 | 63 | 34 | 2.0 | 6.0 | 0.01 | 0.15 | 0.06 | 52 | 1017.2 |
| 20260507171821 | 63 | 50 | 2.0 | 5.0 | 0.01 | 0.15 | 0.06 | 51 | 1017.2 |
| 20260507171621 | 63 | 55 | 2.0 | 5.0 | 0.01 | 0.15 | 0.06 | 52 | 1017.2 |
| 20260507171421 | 63 | 57 | 2.0 | 5.0 | 0.01 | 0.15 | 0.06 | 52 | 1017.2 |
| 20260507171242 | 63 | 53 | 1.0 | 5.0 | 0.01 | 0.15 | 0.06 | 52 | 1017.3 |
| 20260507171021 | 63 | 49 | 1.0 | 5.0 | 0.01 | 0.15 | 0.06 | 51 | 1017.3 |
| 20260507170821 | 63 | 17 | 1.0 | 5.0 | 0.01 | 0.15 | 0.06 | 52 | 1017.4 |
| 20260507170621 | 63 | 341 | 1.0 | 5.0 | 0.01 | 0.15 | 0.06 | 54 | 1017.5 |
| 20260507170421 | 63 | 309 | 1.0 | 4.0 | 0.01 | 0.15 | 0.06 | 51 | 1017.5 |
| 20260507170221 | 63 | 346 | 2.0 | 4.0 | 0.01 | 0.15 | 0.06 | 53 | 1017.5 |
| 20260507170042 | 64 | 307 | 2.0 | 4.0 | 0.01 | 0.15 | 0.06 | 51 | 1017.5 |
| 20260507165821 | 64 | 286 | 2.0 | 6.0 | 0.01 | 0.15 | 0.06 | 50 | 1017.6 |
| 20260507165642 | 64 | 283 | 1.0 | 6.0 | 0.01 | 0.15 | 0.06 | 53 | 1017.6 |
| 20260507165421 | 63 | 284 | 1.0 | 6.0 | 0.01 | 0.15 | 0.06 | 54 | 1017.6 |
| 20260507165242 | 63 | 274 | 1.0 | 6.0 | 0.01 | 0.15 | 0.06 | 52 | 1017.6 |
| 20260507165022 | 63 | 284 | 1.0 | 6.0 | 0.01 | 0.15 | 0.06 | 54 | 1017.5 |
| 20260507164821 | 63 | 23 | 1.0 | 6.0 | 0.01 | 0.15 | 0.06 | 52 | 1017.5 |
| 20260507164643 | 63 | 51 | 1.0 | 5.0 | 0.01 | 0.15 | 0.06 | 57 | 1017.6 |
| 20260507164421 | 63 | 40 | 1.0 | 5.0 | 0.01 | 0.15 | 0.06 | 55 | 1017.5 |
| 20260507164221 | 63 | 23 | 1.0 | 5.0 | 0.01 | 0.15 | 0.06 | 53 | 1017.5 |
| 20260507164022 | 63 | 28 | 1.0 | 5.0 | 0.01 | 0.15 | 0.06 | 53 | 1017.6 |
| 20260507163821 | 63 | 351 | 1.0 | 5.0 | 0.01 | 0.15 | 0.06 | 53 | 1017.7 |
| 20260507163621 | 63 | 7 | 2.0 | 5.0 | 0.01 | 0.16 | 0.06 | 53 | 1017.7 |
| 20260507163421 | 63 | 22 | 2.0 | 5.0 | 0.01 | 0.16 | 0.06 | 55 | 1017.7 |
| 20260507163222 | 63 | 41 | 2.0 | 5.0 | 0.01 | 0.16 | 0.06 | 54 | 1017.8 |
| 20260507163021 | 63 | 38 | 2.0 | 5.0 | 0.01 | 0.16 | 0.06 | 51 | 1017.8 |
| 20260507162821 | 63 | 49 | 2.0 | 5.0 | 0.01 | 0.16 | 0.06 | 55 | 1017.9 |
| 20260507162621 | 63 | 46 | 2.0 | 5.0 | 0.01 | 0.16 | 0.06 | 53 | 1017.9 |
| 20260507162421 | 63 | 23 | 2.0 | 5.0 | 0.01 | 0.16 | 0.06 | 52 | 1018.0 |
| 20260507162221 | 63 | 301 | 2.0 | 6.0 | 0.00 | 0.15 | 0.05 | 54 | 1017.9 |
| 20260507162021 | 63 | 287 | 2.0 | 6.0 | 0.00 | 0.15 | 0.05 | 52 | 1017.8 |
| 20260507161821 | 63 | 282 | 2.0 | 7.0 | 0.00 | 0.15 | 0.05 | 56 | 1017.8 |
| 20260507161621 | 62 | 283 | 2.0 | 7.0 | 0.00 | 0.15 | 0.05 | 53 | 1017.7 |
| 20260507161421 | 62 | 294 | 2.0 | 7.0 | 0.00 | 0.15 | 0.05 | 55 | 1017.9 |
| 20260507161221 | 62 | 295 | 2.0 | 7.0 | 0.00 | 0.15 | 0.05 | 53 | 1017.8 |
| 20260507161021 | 62 | 292 | 2.0 | 7.0 | 0.00 | 0.15 | 0.05 | 53 | 1017.7 |
| 20260507160821 | 62 | 341 | 2.0 | 6.0 | 0.00 | 0.15 | 0.05 | 55 | 1017.7 |
| 20260507160621 | 62 | 3 | 2.0 | 6.0 | 0.00 | 0.15 | 0.05 | 51 | 1017.7 |
| 20260507160421 | 62 | 13 | 2.0 | 7.0 | 0.00 | 0.15 | 0.05 | 53 | 1017.6 |
| 20260507160221 | 62 | 24 | 2.0 | 8.0 | 0.00 | 0.15 | 0.05 | 54 | 1017.7 |
| 20260507160021 | 62 | 28 | 2.0 | 8.0 | 0.00 | 0.15 | 0.05 | 55 | 1017.7 |
| 20260507155821 | 62 | 33 | 2.0 | 8.0 | 0.00 | 0.15 | 0.05 | 55 | 1017.7 |
| 20260507155621 | 62 | 33 | 2.0 | 8.0 | 0.00 | 0.15 | 0.05 | 53 | 1017.7 |
| 20260507155421 | 62 | 35 | 1.0 | 8.0 | 0.01 | 0.15 | 0.05 | 52 | 1017.6 |
| 20260507155221 | 62 | 45 | 1.0 | 5.0 | 0.01 | 0.15 | 0.05 | 52 | 1017.6 |
| 20260507155021 | 63 | 52 | 1.0 | 5.0 | 0.01 | 0.15 | 0.05 | 54 | 1017.6 |
| 20260507154821 | 63 | 63 | 1.0 | 5.0 | 0.01 | 0.16 | 0.05 | 53 | 1017.7 |
| 20260507154621 | 63 | 53 | 1.0 | 4.0 | 0.01 | 0.16 | 0.05 | 55 | 1017.7 |
| 20260507154422 | 63 | 37 | 1.0 | 5.0 | 0.01 | 0.16 | 0.05 | 55 | 1017.7 |
| 20260507154221 | 63 | 29 | 1.0 | 5.0 | 0.01 | 0.16 | 0.05 | 55 | 1017.7 |
| 20260507154021 | 62 | 12 | 1.0 | 5.0 | 0.01 | 0.16 | 0.05 | 59 | 1017.7 |
| 20260507153821 | 62 | 17 | 1.0 | 5.0 | 0.01 | 0.16 | 0.05 | 55 | 1017.7 |
| 20260507153622 | 63 | 1 | 1.0 | 5.0 | 0.01 | 0.16 | 0.05 | 58 | 1017.7 |
| 20260507153442 | 62 | 357 | 1.0 | 5.0 | 0.01 | 0.16 | 0.05 | 56 | 1017.6 |
| 20260507153242 | 62 | 35 | 1.0 | 5.0 | 0.01 | 0.16 | 0.05 | 59 | 1017.6 |
| 20260507153021 | 62 | 39 | 1.0 | 7.0 | 0.01 | 0.16 | 0.05 | 58 | 1017.6 |
| 20260507152821 | 62 | 42 | 1.0 | 7.0 | 0.01 | 0.16 | 0.05 | 57 | 1017.6 |
| 20260507152621 | 62 | 47 | 1.0 | 7.0 | 0.01 | 0.16 | 0.05 | 58 | 1017.7 |
| 20260507152421 | 61 | 45 | 1.0 | 7.0 | 0.01 | 0.16 | 0.05 | 57 | 1017.8 |
| 20260507152221 | 61 | 42 | 1.0 | 7.0 | 0.01 | 0.16 | 0.05 | 60 | 1017.8 |
| 20260507152021 | 61 | 40 | 1.0 | 4.0 | 0.01 | 0.16 | 0.05 | 59 | 1017.8 |
| 20260507151842 | 61 | 3 | 2.0 | 4.0 | 0.01 | 0.16 | 0.05 | 56 | 1017.8 |
| 20260507151642 | 61 | 1 | 2.0 | 4.0 | 0.01 | 0.16 | 0.05 | 58 | 1017.9 |
| 20260507151421 | 61 | 24 | 2.0 | 5.0 | 0.01 | 0.16 | 0.05 | 58 | 1017.9 |
| 20260507151242 | 61 | 37 | 2.0 | 6.0 | 0.01 | 0.16 | 0.05 | 60 | 1017.9 |
| 20260507151021 | 61 | 45 | 2.0 | 6.0 | 0.01 | 0.16 | 0.05 | 59 | 1017.9 |
| 20260507150821 | 61 | 45 | 2.0 | 8.0 | 0.01 | 0.17 | 0.05 | 60 | 1017.9 |
| 20260507150643 | 61 | 44 | 2.0 | 8.0 | 0.01 | 0.17 | 0.05 | 61 | 1018.0 |
| 20260507150421 | 61 | 31 | 2.0 | 8.0 | 0.01 | 0.17 | 0.05 | 60 | 1018.1 |
| 20260507150221 | 61 | 3 | 2.0 | 8.0 | 0.01 | 0.17 | 0.05 | 62 | 1018.1 |
| 20260507150021 | 61 | 324 | 2.0 | 8.0 | 0.01 | 0.17 | 0.05 | 62 | 1018.1 |
| 20260507145821 | 61 | 291 | 1.0 | 6.0 | 0.01 | 0.17 | 0.05 | 60 | 1017.9 |
| 20260507145621 | 61 | 279 | 1.0 | 6.0 | 0.01 | 0.17 | 0.05 | 60 | 1017.9 |
| 20260507145442 | 61 | 277 | 1.0 | 6.0 | 0.00 | 0.16 | 0.05 | 59 | 1017.9 |
| 20260507145221 | 61 | 278 | 1.0 | 5.0 | 0.00 | 0.16 | 0.04 | 60 | 1017.8 |
| 20260507145021 | 61 | 300 | 1.0 | 5.0 | 0.00 | 0.16 | 0.04 | 60 | 1017.9 |
| 20260507144821 | 61 | 4 | 1.0 | 5.0 | 0.00 | 0.16 | 0.04 | 64 | 1017.8 |
| 20260507144621 | 61 | 37 | 1.0 | 4.0 | 0.00 | 0.16 | 0.04 | 63 | 1017.8 |
| 20260507144421 | 61 | 34 | 1.0 | 4.0 | 0.00 | 0.16 | 0.04 | 65 | 1017.8 |
| 20260507144221 | 60 | 34 | 1.0 | 4.0 | 0.00 | 0.16 | 0.04 | 62 | 1017.8 |
| 20260507144042 | 60 | 31 | 1.0 | 4.0 | 0.00 | 0.16 | 0.04 | 63 | 1017.8 |
| 20260507143821 | 60 | 22 | 1.0 | 4.0 | 0.00 | 0.16 | 0.04 | 62 | 1017.8 |
| 20260507143621 | 60 | 23 | 1.0 | 3.0 | 0.00 | 0.16 | 0.04 | 63 | 1017.8 |
| 20260507143421 | 60 | 25 | 1.0 | 3.0 | 0.00 | 0.16 | 0.04 | 64 | 1017.8 |
| 20260507143221 | 60 | 24 | 1.0 | 4.0 | 0.00 | 0.17 | 0.04 | 66 | 1017.8 |
| 20260507143022 | 60 | 29 | 1.0 | 4.0 | 0.00 | 0.17 | 0.04 | 64 | 1017.8 |
| 20260507142842 | 60 | 37 | 1.0 | 4.0 | 0.00 | 0.17 | 0.04 | 65 | 1017.8 |
| 20260507142621 | 60 | 40 | 1.0 | 4.0 | 0.00 | 0.17 | 0.04 | 64 | 1017.8 |
| 20260507142442 | 60 | 41 | 1.0 | 4.0 | 0.00 | 0.17 | 0.04 | 65 | 1017.8 |
| 20260507142242 | 60 | 46 | 1.0 | 4.0 | 0.00 | 0.17 | 0.04 | 62 | 1017.8 |
| 20260507142021 | 60 | 49 | 1.0 | 3.0 | 0.00 | 0.17 | 0.04 | 63 | 1017.8 |
| 20260507141821 | 60 | 52 | 1.0 | 3.0 | 0.00 | 0.17 | 0.04 | 63 | 1017.8 |
| 20260507141621 | 60 | 21 | 1.0 | 5.0 | 0.00 | 0.17 | 0.04 | 64 | 1017.9 |
| 20260507141421 | 60 | 13 | 1.0 | 5.0 | 0.00 | 0.17 | 0.04 | 64 | 1017.9 |
| 20260507141242 | 59 | 5 | 1.0 | 5.0 | 0.00 | 0.17 | 0.04 | 64 | 1017.9 |
| 20260507141021 | 59 | 10 | 1.0 | 5.0 | 0.00 | 0.17 | 0.04 | 64 | 1017.8 |
| 20260507140821 | 59 | 5 | 2.0 | 5.0 | 0.00 | 0.17 | 0.04 | 64 | 1017.7 |
| 20260507140621 | 59 | 33 | 2.0 | 4.0 | 0.00 | 0.17 | 0.04 | 66 | 1017.6 |
| 20260507140421 | 59 | 34 | 2.0 | 5.0 | 0.00 | 0.17 | 0.04 | 65 | 1017.5 |
| 20260507140221 | 58 | 39 | 2.0 | 5.0 | 0.00 | 0.18 | 0.04 | 66 | 1017.5 |
| 20260507140022 | 58 | 41 | 2.0 | 5.0 | 0.00 | 0.18 | 0.04 | 68 | 1017.5 |
| 20260507135821 | 58 | 40 | 2.0 | 5.0 | 0.00 | 0.18 | 0.04 | 66 | 1017.5 |
| 20260507135621 | 58 | 38 | 2.0 | 5.0 | 0.00 | 0.18 | 0.04 | 65 | 1017.5 |
| 20260507135421 | 58 | 40 | 2.0 | 4.0 | 0.00 | 0.18 | 0.04 | 67 | 1017.6 |
| 20260507135223 | 58 | 40 | 2.0 | 4.0 | 0.00 | 0.18 | 0.04 | 65 | 1017.5 |
| 20260507135021 | 58 | 37 | 2.0 | 4.0 | 0.00 | 0.18 | 0.04 | 66 | 1017.6 |
| 20260507134821 | 58 | 39 | 2.0 | 4.0 | 0.01 | 0.18 | 0.04 | 66 | 1017.6 |
| 20260507134642 | 58 | 35 | 2.0 | 5.0 | 0.01 | 0.18 | 0.04 | 67 | 1017.6 |
| 20260507134421 | 57 | 35 | 2.0 | 5.0 | 0.01 | 0.18 | 0.04 | 68 | 1017.6 |
| 20260507134221 | 57 | 30 | 2.0 | 5.0 | 0.01 | 0.18 | 0.04 | 68 | 1017.6 |
| 20260507134021 | 57 | 34 | 2.0 | 5.0 | 0.01 | 0.18 | 0.04 | 68 | 1017.6 |
| 20260507133821 | 57 | 37 | 2.0 | 5.0 | 0.01 | 0.19 | 0.04 | 67 | 1017.6 |
| 20260507133621 | 57 | 36 | 2.0 | 4.0 | 0.01 | 0.19 | 0.04 | 67 | 1017.6 |
| 20260507133421 | 57 | 34 | 2.0 | 5.0 | 0.01 | 0.19 | 0.04 | 68 | 1017.5 |
| 20260507133221 | 56 | 32 | 2.0 | 5.0 | 0.01 | 0.19 | 0.04 | 68 | 1017.5 |
| 20260507133021 | 56 | 29 | 2.0 | 5.0 | 0.01 | 0.19 | 0.04 | 69 | 1017.5 |
| 20260507132821 | 56 | 28 | 2.0 | 5.0 | 0.01 | 0.19 | 0.04 | 69 | 1017.4 |
| 20260507132621 | 56 | 31 | 2.0 | 5.0 | 0.01 | 0.19 | 0.04 | 69 | 1017.4 |
| 20260507132422 | 56 | 33 | 2.0 | 5.0 | 0.01 | 0.19 | 0.04 | 68 | 1017.5 |
| 20260507132221 | 56 | 39 | 1.0 | 4.0 | 0.01 | 0.19 | 0.04 | 70 | 1017.5 |
| 20260507132021 | 56 | 45 | 1.0 | 4.0 | 0.01 | 0.20 | 0.04 | 71 | 1017.5 |
| 20260507131821 | 56 | 43 | 1.0 | 4.0 | 0.01 | 0.20 | 0.04 | 71 | 1017.5 |
| 20260507131621 | 56 | 42 | 1.0 | 3.0 | 0.01 | 0.20 | 0.04 | 71 | 1017.5 |
| 20260507131421 | 55 | 43 | 1.0 | 3.0 | 0.01 | 0.20 | 0.04 | 72 | 1017.5 |
| 20260507131221 | 55 | 44 | 1.0 | 4.0 | 0.01 | 0.20 | 0.04 | 73 | 1017.4 |
| 20260507131021 | 55 | 43 | 1.0 | 4.0 | 0.01 | 0.20 | 0.04 | 74 | 1017.3 |
| 20260507130821 | 54 | 39 | 1.0 | 5.0 | 0.01 | 0.21 | 0.04 | 75 | 1017.3 |
| 20260507130642 | 54 | 37 | 1.0 | 5.0 | 0.01 | 0.21 | 0.04 | 75 | 1017.4 |
| 20260507130421 | 54 | 41 | 1.0 | 5.0 | 0.01 | 0.21 | 0.04 | 74 | 1017.4 |
| 20260507130221 | 53 | 40 | 1.0 | 5.0 | 0.01 | 0.21 | 0.04 | 76 | 1017.4 |
| 20260507130021 | 53 | 43 | 2.0 | 5.0 | 0.01 | 0.21 | 0.04 | 76 | 1017.4 |
| 20260507125821 | 53 | 54 | 2.0 | 4.0 | 0.01 | 0.21 | 0.04 | 77 | 1017.4 |
| 20260507125642 | 52 | 52 | 2.0 | 7.0 | 0.01 | 0.21 | 0.04 | 77 | 1017.3 |
| 20260507125421 | 52 | 46 | 2.0 | 7.0 | 0.01 | 0.22 | 0.04 | 78 | 1017.3 |
| 20260507125221 | 52 | 42 | 2.0 | 7.0 | 0.01 | 0.22 | 0.04 | 78 | 1017.4 |
| 20260507125042 | 51 | 38 | 1.0 | 7.0 | 0.01 | 0.22 | 0.04 | 79 | 1017.4 |
| 20260507124821 | 51 | 31 | 1.0 | 7.0 | 0.00 | 0.21 | 0.04 | 79 | 1017.5 |
| 20260507124621 | 51 | 29 | 1.0 | 5.0 | 0.00 | 0.21 | 0.03 | 81 | 1017.5 |
| 20260507124421 | 51 | 33 | 1.0 | 5.0 | 0.00 | 0.21 | 0.03 | 81 | 1017.5 |
| 20260507124221 | 51 | 30 | 1.0 | 5.0 | 0.00 | 0.21 | 0.03 | 81 | 1017.5 |
| 20260507124021 | 51 | 34 | 1.0 | 5.0 | 0.00 | 0.22 | 0.03 | 81 | 1017.5 |
| 20260507123821 | 50 | 41 | 1.0 | 5.0 | 0.00 | 0.22 | 0.03 | 82 | 1017.5 |
| 20260507123621 | 50 | 38 | 1.0 | 5.0 | 0.00 | 0.22 | 0.03 | 81 | 1017.5 |
| 20260507123421 | 50 | 32 | 1.0 | 5.0 | 0.00 | 0.22 | 0.03 | 82 | 1017.4 |
| 20260507123221 | 50 | 30 | 1.0 | 5.0 | 0.00 | 0.22 | 0.03 | 82 | 1017.4 |
| 20260507123021 | 50 | 26 | 1.0 | 5.0 | 0.00 | 0.23 | 0.03 | 83 | 1017.4 |
| 20260507122842 | 50 | 22 | 1.0 | 5.0 | 0.00 | 0.23 | 0.03 | 83 | 1017.4 |
| 20260507122621 | 50 | 25 | 1.0 | 5.0 | 0.00 | 0.23 | 0.03 | 83 | 1017.4 |
| 20260507122421 | 50 | 25 | 1.0 | 5.0 | 0.00 | 0.23 | 0.03 | 83 | 1017.4 |
| 20260507122221 | 50 | 33 | 1.0 | 5.0 | 0.00 | 0.23 | 0.03 | 83 | 1017.3 |
| 20260507122021 | 50 | 37 | 1.0 | 4.0 | 0.00 | 0.24 | 0.03 | 83 | 1017.4 |
| 20260507121823 | 49 | 38 | 1.0 | 4.0 | 0.00 | 0.24 | 0.03 | 84 | 1017.4 |
| 20260507121621 | 49 | 39 | 1.0 | 4.0 | 0.00 | 0.24 | 0.03 | 84 | 1017.4 |
| 20260507121421 | 49 | 42 | 1.0 | 4.0 | 0.00 | 0.25 | 0.03 | 84 | 1017.4 |
| 20260507121221 | 49 | 30 | 1.0 | 7.0 | 0.00 | 0.25 | 0.03 | 84 | 1017.3 |
| 20260507121042 | 49 | 29 | 1.0 | 7.0 | 0.00 | 0.25 | 0.03 | 85 | 1017.4 |
| 20260507120821 | 49 | 29 | 1.0 | 7.0 | 0.00 | 0.26 | 0.03 | 86 | 1017.4 |
| 20260507120621 | 49 | 30 | 1.0 | 7.0 | 0.00 | 0.26 | 0.03 | 86 | 1017.4 |
| 20260507120421 | 48 | 32 | 1.0 | 7.0 | 0.00 | 0.27 | 0.03 | 86 | 1017.4 |
| 20260507120242 | 48 | 39 | 1.0 | 3.0 | 0.00 | 0.27 | 0.03 | 86 | 1017.4 |
| 20260507120021 | 48 | 42 | 0.0 | 3.0 | 0.00 | 0.28 | 0.03 | 87 | 1017.3 |
| 20260507115821 | 48 | 39 | 0.0 | 2.0 | 0.00 | 0.28 | 0.03 | 87 | 1017.3 |
| 20260507115621 | 48 | 37 | 0.0 | 2.0 | 0.00 | 0.28 | 0.03 | 87 | 1017.3 |
| 20260507115421 | 48 | 30 | 0.0 | 2.0 | 0.00 | 0.29 | 0.03 | 87 | 1017.3 |
| 20260507115221 | 48 | 31 | 0.0 | 2.0 | 0.00 | 0.29 | 0.03 | 88 | 1017.3 |
| 20260507115021 | 48 | 33 | 0.0 | 2.0 | 0.00 | 0.29 | 0.03 | 88 | 1017.3 |
| 20260507114821 | 47 | 37 | 0.0 | 2.0 | 0.00 | 0.30 | 0.03 | 88 | 1017.3 |
| 20260507114621 | 47 | 43 | 0.0 | 2.0 | 0.00 | 0.30 | 0.03 | 89 | 1017.2 |
| 20260507114421 | 47 | 20 | 0.0 | 2.0 | 0.00 | 0.31 | 0.03 | 89 | 1017.2 |
| 20260507114221 | 47 | 356 | 0.0 | 2.0 | 0.00 | 0.31 | 0.03 | 89 | 1017.2 |
| 20260507114021 | 47 | 236 | 0.0 | 1.0 | 0.00 | 0.31 | 0.03 | 89 | 1017.2 |
| 20260507113842 | 47 | 237 | 0.0 | 1.0 | 0.00 | 0.32 | 0.03 | 89 | 1017.1 |
| 20260507113621 | 47 | 264 | 0.0 | 1.0 | 0.00 | 0.32 | 0.03 | 89 | 1017.2 |
| 20260507113421 | 47 | 291 | 0.0 | 1.0 | 0.00 | 0.33 | 0.03 | 90 | 1017.2 |
| 20260507113221 | 47 | 0 | 0.0 | 0.0 | 0.00 | 0.33 | 0.03 | 90 | 1017.3 |
| 20260507113021 | 47 | 0 | 0.0 | 0.0 | 0.00 | 0.34 | 0.03 | 90 | 1017.1 |
| 20260507112843 | 46 | 0 | 0.0 | 0.0 | 0.00 | 0.34 | 0.03 | 90 | 1017.1 |
| 20260507112621 | 46 | 0 | 0.0 | 0.0 | 0.00 | 0.35 | 0.03 | 90 | 1017.0 |
| 20260507112421 | 46 | 0 | 0.0 | 0.0 | 0.00 | 0.35 | 0.03 | 90 | 1017.1 |
| 20260507112221 | 46 | 0 | 0.0 | 0.0 | 0.00 | 0.35 | 0.03 | 90 | 1017.1 |
| 20260507112021 | 46 | 0 | 0.0 | 0.0 | 0.00 | 0.36 | 0.03 | 90 | 1017.1 |
| 20260507111821 | 46 | 0 | 0.0 | 0.0 | 0.00 | 0.36 | 0.03 | 90 | 1017.1 |
| 20260507111642 | 46 | 0 | 0.0 | 0.0 | 0.00 | 0.37 | 0.03 | 90 | 1017.1 |
| 20260507111442 | 46 | 0 | 0.0 | 0.0 | 0.00 | 0.37 | 0.03 | 90 | 1017.1 |
| 20260507111221 | 46 | 0 | 0.0 | 0.0 | 0.00 | 0.38 | 0.03 | 90 | 1017.1 |
| 20260507111042 | 46 | 0 | 0.0 | 0.0 | 0.00 | 0.38 | 0.03 | 90 | 1017.0 |
| 20260507110821 | 46 | 0 | 0.0 | 0.0 | 0.01 | 0.39 | 0.03 | 90 | 1017.0 |
| 20260507110621 | 46 | 0 | 0.0 | 0.0 | 0.01 | 0.39 | 0.03 | 90 | 1017.0 |
| 20260507110421 | 46 | 0 | 0.0 | 0.0 | 0.01 | 0.39 | 0.03 | 90 | 1017.0 |
| 20260507110221 | 46 | 0 | 0.0 | 0.0 | 0.01 | 0.40 | 0.03 | 90 | 1016.9 |
| 20260507110021 | 46 | 0 | 0.0 | 0.0 | 0.01 | 0.40 | 0.03 | 90 | 1016.9 |
| 20260507105842 | 46 | 0 | 0.0 | 0.0 | 0.01 | 0.40 | 0.03 | 90 | 1016.8 |
| 20260507105621 | 46 | 0 | 0.0 | 0.0 | 0.01 | 0.40 | 0.03 | 90 | 1016.7 |
| 20260507105421 | 46 | 0 | 0.0 | 0.0 | 0.01 | 0.41 | 0.03 | 90 | 1016.8 |
| 20260507105221 | 46 | 0 | 0.0 | 0.0 | 0.01 | 0.41 | 0.03 | 89 | 1016.7 |
| 20260507105021 | 46 | 0 | 0.0 | 0.0 | 0.01 | 0.41 | 0.03 | 89 | 1016.8 |
| 20260507104821 | 47 | 0 | 0.0 | 0.0 | 0.01 | 0.41 | 0.03 | 89 | 1016.7 |
| 20260507104621 | 47 | 0 | 0.0 | 0.0 | 0.01 | 0.42 | 0.03 | 89 | 1016.8 |
| 20260507104421 | 47 | 0 | 0.0 | 0.0 | 0.01 | 0.42 | 0.03 | 89 | 1016.7 |
| 20260507104221 | 47 | 0 | 0.0 | 0.0 | 0.01 | 0.42 | 0.03 | 89 | 1016.7 |
| 20260507104021 | 47 | 0 | 0.0 | 0.0 | 0.01 | 0.42 | 0.03 | 89 | 1016.7 |
| 20260507103842 | 47 | 0 | 0.0 | 0.0 | 0.01 | 0.42 | 0.03 | 89 | 1016.6 |
| 20260507103642 | 47 | 0 | 0.0 | 0.0 | 0.01 | 0.42 | 0.03 | 89 | 1016.7 |
| 20260507103421 | 47 | 0 | 0.0 | 0.0 | 0.01 | 0.43 | 0.03 | 88 | 1016.6 |
| 20260507103242 | 47 | 0 | 0.0 | 0.0 | 0.01 | 0.43 | 0.03 | 88 | 1016.5 |
| 20260507103042 | 47 | 0 | 0.0 | 0.0 | 0.01 | 0.43 | 0.03 | 88 | 1016.6 |
| 20260507102821 | 48 | 0 | 0.0 | 0.0 | 0.01 | 0.43 | 0.03 | 88 | 1016.5 |
| 20260507102621 | 48 | 0 | 0.0 | 0.0 | 0.01 | 0.43 | 0.03 | 88 | 1016.5 |
| 20260507102421 | 48 | 0 | 0.0 | 0.0 | 0.01 | 0.43 | 0.03 | 88 | 1016.5 |
| 20260507102242 | 48 | 0 | 0.0 | 0.0 | 0.01 | 0.43 | 0.03 | 88 | 1016.5 |
| 20260507102021 | 48 | 0 | 0.0 | 0.0 | 0.01 | 0.43 | 0.03 | 88 | 1016.5 |
| 20260507101821 | 48 | 0 | 0.0 | 0.0 | 0.01 | 0.43 | 0.03 | 88 | 1016.6 |
| 20260507101621 | 48 | 0 | 0.0 | 0.0 | 0.01 | 0.44 | 0.03 | 88 | 1016.5 |
| 20260507101421 | 48 | 0 | 0.0 | 0.0 | 0.01 | 0.44 | 0.03 | 87 | 1016.4 |
| 20260507101221 | 48 | 0 | 0.0 | 0.0 | 0.01 | 0.44 | 0.03 | 87 | 1016.4 |
| 20260507101021 | 48 | 0 | 0.0 | 0.0 | 0.01 | 0.44 | 0.03 | 87 | 1016.5 |
| 20260507100821 | 48 | 0 | 0.0 | 0.0 | 0.00 | 0.44 | 0.02 | 87 | 1016.5 |
| 20260507100621 | 48 | 0 | 0.0 | 0.0 | 0.00 | 0.44 | 0.02 | 87 | 1016.5 |
| 20260507100421 | 48 | 0 | 0.0 | 0.0 | 0.00 | 0.44 | 0.02 | 87 | 1016.4 |
| 20260507100221 | 48 | 0 | 0.0 | 0.0 | 0.00 | 0.44 | 0.02 | 87 | 1016.4 |
| 20260507100042 | 48 | 0 | 0.0 | 0.0 | 0.00 | 0.45 | 0.02 | 87 | 1016.4 |
| 20260507095821 | 48 | 0 | 0.0 | 0.0 | 0.00 | 0.45 | 0.02 | 87 | 1016.4 |
| 20260507095621 | 48 | 0 | 0.0 | 0.0 | 0.00 | 0.45 | 0.02 | 87 | 1016.4 |
| 20260507095421 | 48 | 0 | 0.0 | 0.0 | 0.00 | 0.46 | 0.02 | 87 | 1016.4 |
| 20260507095221 | 48 | 0 | 0.0 | 0.0 | 0.00 | 0.46 | 0.02 | 87 | 1016.3 |
| 20260507095021 | 48 | 0 | 0.0 | 0.0 | 0.00 | 0.46 | 0.02 | 87 | 1016.3 |
| 20260507094822 | 48 | 0 | 0.0 | 0.0 | 0.00 | 0.47 | 0.02 | 87 | 1016.3 |
| 20260507094621 | 48 | 0 | 0.0 | 0.0 | 0.00 | 0.47 | 0.02 | 87 | 1016.3 |
| 20260507094421 | 48 | 0 | 0.0 | 0.0 | 0.00 | 0.48 | 0.02 | 87 | 1016.3 |
| 20260507094221 | 48 | 0 | 0.0 | 0.0 | 0.00 | 0.48 | 0.02 | 87 | 1016.4 |
| 20260507094021 | 49 | 0 | 0.0 | 0.0 | 0.00 | 0.49 | 0.02 | 87 | 1016.4 |
| 20260507093821 | 49 | 0 | 0.0 | 0.0 | 0.00 | 0.49 | 0.02 | 87 | 1016.4 |
| 20260507093621 | 49 | 0 | 0.0 | 0.0 | 0.00 | 0.50 | 0.02 | 87 | 1016.3 |
| 20260507093421 | 49 | 0 | 0.0 | 0.0 | 0.00 | 0.50 | 0.02 | 87 | 1016.3 |
| 20260507093221 | 49 | 0 | 0.0 | 0.0 | 0.00 | 0.51 | 0.02 | 87 | 1016.3 |
| 20260507093021 | 49 | 0 | 0.0 | 0.0 | 0.00 | 0.51 | 0.02 | 87 | 1016.3 |
| 20260507092821 | 49 | 0 | 0.0 | 0.0 | 0.00 | 0.52 | 0.02 | 87 | 1016.3 |
| 20260507092621 | 49 | 0 | 0.0 | 0.0 | 0.00 | 0.53 | 0.02 | 87 | 1016.3 |
| 20260507092421 | 49 | 0 | 0.0 | 0.0 | 0.00 | 0.54 | 0.02 | 87 | 1016.1 |
| 20260507092221 | 49 | 0 | 0.0 | 0.0 | 0.00 | 0.54 | 0.02 | 87 | 1016.1 |
| 20260507092042 | 49 | 0 | 0.0 | 0.0 | 0.00 | 0.55 | 0.02 | 87 | 1016.1 |
| 20260507091821 | 49 | 0 | 0.0 | 0.0 | 0.00 | 0.56 | 0.02 | 87 | 1016.1 |
| 20260507091621 | 49 | 0 | 0.0 | 0.0 | 0.00 | 0.57 | 0.02 | 87 | 1016.1 |
| 20260507091421 | 49 | 0 | 0.0 | 0.0 | 0.00 | 0.58 | 0.02 | 87 | 1016.1 |
| 20260507091221 | 49 | 0 | 0.0 | 0.0 | 0.00 | 0.59 | 0.02 | 87 | 1016.2 |
| 20260507091021 | 49 | 0 | 0.0 | 0.0 | 0.00 | 0.60 | 0.02 | 87 | 1016.2 |
| 20260507090821 | 49 | 0 | 0.0 | 0.0 | 0.00 | 0.62 | 0.02 | 87 | 1016.2 |
| 20260507090622 | 49 | 0 | 0.0 | 0.0 | 0.00 | 0.63 | 0.02 | 87 | 1016.2 |
| 20260507090421 | 49 | 0 | 0.0 | 0.0 | 0.00 | 0.63 | 0.02 | 87 | 1016.2 |
| 20260507090222 | 49 | 0 | 0.0 | 0.0 | 0.00 | 0.63 | 0.02 | 87 | 1016.2 |
| 20260507090021 | 49 | 0 | 0.0 | 0.0 | 0.00 | 0.63 | 0.02 | 87 | 1016.2 |
| 20260507085821 | 49 | 0 | 0.0 | 0.0 | 0.00 | 0.64 | 0.02 | 87 | 1016.2 |
| 20260507085622 | 49 | 0 | 0.0 | 0.0 | 0.00 | 0.66 | 0.02 | 87 | 1016.1 |
| 20260507085442 | 49 | 0 | 0.0 | 0.0 | 0.00 | 0.66 | 0.02 | 87 | 1016.1 |
| 20260507085221 | 49 | 0 | 0.0 | 0.0 | 0.00 | 0.67 | 0.02 | 87 | 1016.0 |
| 20260507085021 | 49 | 0 | 0.0 | 0.0 | 0.00 | 0.68 | 0.02 | 87 | 1016.0 |
| 20260507084842 | 49 | 23 | 0.0 | 1.0 | 0.00 | 0.71 | 0.02 | 87 | 1016.0 |
| 20260507084621 | 49 | 23 | 0.0 | 1.0 | 0.00 | 0.73 | 0.02 | 87 | 1015.8 |
| 20260507084421 | 49 | 23 | 0.0 | 1.0 | 0.01 | 0.76 | 0.02 | 88 | 1015.9 |
| 20260507084221 | 49 | 23 | 0.0 | 1.0 | 0.01 | 0.77 | 0.02 | 88 | 1016.0 |
| 20260507084021 | 49 | 23 | 0.0 | 1.0 | 0.01 | 0.77 | 0.02 | 88 | 1015.9 |
| 20260507083821 | 49 | 0 | 0.0 | 0.0 | 0.01 | 0.77 | 0.02 | 88 | 1015.9 |
| 20260507083621 | 49 | 0 | 0.0 | 0.0 | 0.01 | 0.78 | 0.02 | 88 | 1015.9 |
| 20260507083421 | 49 | 0 | 0.0 | 0.0 | 0.01 | 0.79 | 0.02 | 88 | 1016.0 |
| 20260507083221 | 49 | 0 | 0.0 | 0.0 | 0.01 | 0.80 | 0.02 | 88 | 1015.8 |
| 20260507083022 | 49 | 293 | 0.0 | 1.0 | 0.01 | 0.82 | 0.02 | 88 | 1015.8 |
| 20260507082821 | 49 | 293 | 0.0 | 1.0 | 0.01 | 0.84 | 0.02 | 89 | 1015.9 |
| 20260507082621 | 49 | 293 | 0.0 | 1.0 | 0.01 | 0.85 | 0.02 | 89 | 1016.0 |
| 20260507082421 | 49 | 293 | 0.0 | 1.0 | 0.01 | 0.85 | 0.02 | 89 | 1016.0 |
| 20260507082221 | 49 | 293 | 0.0 | 1.0 | 0.01 | 0.86 | 0.02 | 89 | 1015.9 |
| 20260507082021 | 49 | 0 | 0.0 | 0.0 | 0.01 | 0.87 | 0.02 | 89 | 1016.0 |
| 20260507081821 | 49 | 293 | 0.0 | 1.0 | 0.01 | 0.87 | 0.02 | 89 | 1016.0 |
| 20260507081622 | 49 | 293 | 0.0 | 1.0 | 0.01 | 0.87 | 0.02 | 90 | 1016.1 |
| 20260507081421 | 49 | 293 | 0.0 | 1.0 | 0.01 | 0.88 | 0.02 | 90 | 1016.1 |
| 20260507081221 | 49 | 293 | 0.0 | 1.0 | 0.01 | 0.88 | 0.02 | 90 | 1016.1 |
| 20260507081021 | 49 | 293 | 0.0 | 1.0 | 0.01 | 0.88 | 0.02 | 90 | 1016.1 |
| 20260507080821 | 49 | 0 | 0.0 | 0.0 | 0.01 | 0.88 | 0.02 | 91 | 1016.1 |
| 20260507080621 | 49 | 0 | 0.0 | 0.0 | 0.01 | 0.88 | 0.02 | 91 | 1016.1 |
| 20260507080421 | 48 | 0 | 0.0 | 0.0 | 0.01 | 0.88 | 0.02 | 91 | 1016.1 |
| 20260507080221 | 49 | 0 | 0.0 | 0.0 | 0.01 | 0.88 | 0.02 | 91 | 1016.1 |
| 20260507080021 | 49 | 0 | 0.0 | 0.0 | 0.01 | 0.88 | 0.02 | 91 | 1016.1 |
| 20260507075821 | 49 | 0 | 0.0 | 0.0 | 0.01 | 0.88 | 0.02 | 91 | 1016.1 |
| 20260507075621 | 49 | 0 | 0.0 | 0.0 | 0.01 | 0.88 | 0.02 | 91 | 1016.1 |
| 20260507075421 | 49 | 0 | 0.0 | 0.0 | 0.01 | 0.88 | 0.02 | 91 | 1016.1 |
| 20260507075221 | 49 | 0 | 0.0 | 0.0 | 0.01 | 0.89 | 0.02 | 91 | 1016.2 |
| 20260507075021 | 49 | 0 | 0.0 | 0.0 | 0.01 | 0.89 | 0.02 | 91 | 1016.0 |
| 20260507074842 | 49 | 0 | 0.0 | 0.0 | 0.01 | 0.90 | 0.02 | 91 | 1016.0 |
| 20260507074621 | 49 | 277 | 0.0 | 1.0 | 0.01 | 0.93 | 0.02 | 91 | 1016.1 |
| 20260507074421 | 49 | 277 | 0.0 | 1.0 | 0.00 | 0.94 | 0.01 | 91 | 1016.0 |
| 20260507074221 | 49 | 277 | 0.0 | 1.0 | 0.00 | 0.94 | 0.01 | 91 | 1016.0 |
| 20260507074022 | 49 | 277 | 0.0 | 1.0 | 0.00 | 0.95 | 0.01 | 91 | 1016.0 |
| 20260507073821 | 49 | 277 | 0.0 | 1.0 | 0.00 | 0.96 | 0.01 | 91 | 1016.1 |
| 20260507073642 | 49 | 277 | 0.0 | 1.0 | 0.00 | 0.96 | 0.01 | 91 | 1016.2 |
| 20260507073442 | 49 | 277 | 0.0 | 1.0 | 0.00 | 0.96 | 0.01 | 91 | 1016.2 |
| 20260507073222 | 49 | 277 | 0.0 | 1.0 | 0.00 | 0.96 | 0.01 | 91 | 1016.2 |
| 20260507073021 | 50 | 277 | 0.0 | 1.0 | 0.00 | 0.96 | 0.01 | 91 | 1016.3 |
| 20260507072821 | 50 | 277 | 0.0 | 1.0 | 0.00 | 0.96 | 0.01 | 90 | 1016.3 |
| 20260507072621 | 50 | 0 | 0.0 | 0.0 | 0.00 | 0.96 | 0.01 | 90 | 1016.3 |
| 20260507072421 | 50 | 0 | 0.0 | 0.0 | 0.00 | 0.97 | 0.01 | 90 | 1016.3 |
| 20260507072221 | 50 | 0 | 0.0 | 0.0 | 0.00 | 0.98 | 0.01 | 90 | 1016.3 |
| 20260507072042 | 50 | 0 | 0.0 | 0.0 | 0.00 | 0.99 | 0.01 | 90 | 1016.3 |
| 20260507071821 | 50 | 0 | 0.0 | 0.0 | 0.00 | 0.99 | 0.01 | 90 | 1016.3 |
| 20260507071621 | 50 | 0 | 0.0 | 0.0 | 0.00 | 0.99 | 0.01 | 90 | 1016.4 |
| 20260507071424 | 50 | 0 | 0.0 | 0.0 | 0.00 | 1.00 | 0.01 | 90 | 1016.4 |
| 20260507071221 | 50 | 0 | 0.0 | 0.0 | 0.00 | 1.00 | 0.01 | 90 | 1016.5 |
| 20260507071021 | 50 | 0 | 0.0 | 0.0 | 0.00 | 1.00 | 0.01 | 89 | 1016.4 |
| 20260507070821 | 50 | 277 | 0.0 | 1.0 | 0.00 | 1.00 | 0.01 | 89 | 1016.3 |
| 20260507070621 | 50 | 277 | 0.0 | 1.0 | 0.00 | 1.00 | 0.01 | 89 | 1016.1 |
| 20260507070423 | 50 | 277 | 0.0 | 1.0 | 0.00 | 1.00 | 0.01 | 89 | 1016.2 |
| 20260507070221 | 50 | 277 | 0.0 | 1.0 | 0.00 | 1.00 | 0.01 | 89 | 1016.2 |
| 20260507070021 | 50 | 277 | 0.0 | 1.0 | 0.00 | 1.00 | 0.01 | 89 | 1016.1 |
| 20260507065821 | 50 | 279 | 0.0 | 1.0 | 0.00 | 1.00 | 0.01 | 89 | 1016.0 |
| 20260507065621 | 50 | 279 | 0.0 | 1.0 | 0.00 | 1.00 | 0.01 | 90 | 1015.9 |
| 20260507065421 | 50 | 280 | 0.0 | 1.0 | 0.00 | 1.00 | 0.01 | 90 | 1015.7 |
| 20260507065221 | 50 | 281 | 0.0 | 1.0 | 0.00 | 1.00 | 0.01 | 90 | 1015.7 |
| 20260507065021 | 50 | 281 | 0.0 | 1.0 | 0.00 | 1.00 | 0.01 | 90 | 1015.7 |
| 20260507064821 | 50 | 281 | 0.0 | 1.0 | 0.00 | 1.00 | 0.01 | 90 | 1015.6 |
| 20260507064621 | 50 | 281 | 0.0 | 1.0 | 0.00 | 1.00 | 0.01 | 90 | 1015.6 |
| 20260507064422 | 50 | 283 | 0.0 | 1.0 | 0.00 | 1.00 | 0.01 | 90 | 1015.6 |
| 20260507064221 | 50 | 285 | 0.0 | 1.0 | 0.00 | 1.00 | 0.01 | 90 | 1015.8 |
| 20260507064021 | 50 | 285 | 0.0 | 1.0 | 0.01 | 1.00 | 0.01 | 90 | 1015.9 |
| 20260507063843 | 50 | 285 | 0.0 | 1.0 | 0.01 | 1.00 | 0.01 | 90 | 1015.9 |
| 20260507063642 | 50 | 285 | 0.0 | 1.0 | 0.01 | 1.00 | 0.01 | 90 | 1016.0 |
| 20260507063421 | 50 | 286 | 0.0 | 1.0 | 0.01 | 1.01 | 0.01 | 91 | 1015.9 |
| 20260507063242 | 50 | 0 | 0.0 | 0.0 | 0.01 | 1.01 | 0.01 | 91 | 1015.7 |
| 20260507063021 | 50 | 0 | 0.0 | 0.0 | 0.01 | 1.01 | 0.01 | 91 | 1015.6 |
| 20260507062821 | 50 | 0 | 0.0 | 0.0 | 0.01 | 1.02 | 0.01 | 92 | 1015.7 |
| 20260507062621 | 50 | 0 | 0.0 | 0.0 | 0.01 | 1.02 | 0.01 | 92 | 1015.7 |
| 20260507062421 | 50 | 0 | 0.0 | 0.0 | 0.01 | 1.02 | 0.01 | 92 | 1015.7 |
| 20260507062221 | 50 | 0 | 0.0 | 0.0 | 0.01 | 1.02 | 0.01 | 92 | 1015.8 |
| 20260507062022 | 50 | 0 | 0.0 | 0.0 | 0.01 | 1.03 | 0.01 | 92 | 1015.8 |
| 20260507061821 | 50 | 0 | 0.0 | 0.0 | 0.01 | 1.03 | 0.01 | 92 | 1015.7 |
| 20260507061621 | 50 | 0 | 0.0 | 0.0 | 0.01 | 1.03 | 0.01 | 92 | 1015.7 |
| 20260507061421 | 50 | 0 | 0.0 | 0.0 | 0.01 | 1.03 | 0.01 | 92 | 1015.9 |
| 20260507061221 | 50 | 0 | 0.0 | 0.0 | 0.01 | 1.03 | 0.01 | 92 | 1015.9 |
| 20260507061021 | 51 | 0 | 0.0 | 0.0 | 0.01 | 1.03 | 0.01 | 92 | 1015.9 |
| 20260507060821 | 51 | 0 | 0.0 | 0.0 | 0.01 | 1.03 | 0.01 | 92 | 1016.0 |
| 20260507060642 | 51 | 0 | 0.0 | 0.0 | 0.01 | 1.03 | 0.01 | 92 | 1016.0 |
| 20260507060442 | 51 | 0 | 0.0 | 0.0 | 0.01 | 1.04 | 0.01 | 92 | 1016.1 |
| 20260507060221 | 51 | 0 | 0.0 | 0.0 | 0.01 | 1.04 | 0.01 | 92 | 1016.1 |
| 20260507060021 | 51 | 0 | 0.0 | 0.0 | 0.01 | 1.06 | 0.01 | 92 | 1016.2 |
| 20260507055821 | 51 | 0 | 0.0 | 0.0 | 0.01 | 1.10 | 0.01 | 92 | 1016.2 |
| 20260507055621 | 51 | 0 | 0.0 | 0.0 | 0.01 | 1.10 | 0.01 | 91 | 1016.1 |
| 20260507055421 | 51 | 0 | 0.0 | 0.0 | 0.01 | 1.11 | 0.01 | 91 | 1016.2 |
| 20260507055221 | 51 | 0 | 0.0 | 0.0 | 0.01 | 1.12 | 0.01 | 91 | 1016.1 |
| 20260507055021 | 51 | 0 | 0.0 | 0.0 | 0.01 | 1.13 | 0.01 | 91 | 1016.0 |
| 20260507054821 | 51 | 0 | 0.0 | 0.0 | 0.01 | 1.20 | 0.01 | 91 | 1016.1 |
| 20260507054621 | 51 | 0 | 0.0 | 0.0 | 0.01 | 1.22 | 0.01 | 91 | 1016.2 |
| 20260507054421 | 51 | 0 | 0.0 | 0.0 | 0.01 | 1.22 | 0.01 | 91 | 1016.3 |
| 20260507054221 | 51 | 0 | 0.0 | 0.0 | 0.01 | 1.22 | 0.01 | 91 | 1016.3 |
| 20260507054021 | 51 | 0 | 0.0 | 0.0 | 0.00 | 1.21 | 0.00 | 91 | 1016.4 |
| 20260507053842 | 51 | 0 | 0.0 | 0.0 | 0.00 | 1.21 | 0.00 | 91 | 1016.4 |
| 20260507053621 | 51 | 0 | 0.0 | 0.0 | 0.00 | 1.21 | 0.00 | 91 | 1016.4 |
| 20260507053421 | 51 | 0 | 0.0 | 0.0 | 0.00 | 1.21 | 0.00 | 90 | 1016.4 |
| 20260507053221 | 51 | 0 | 0.0 | 0.0 | 0.00 | 1.21 | 0.00 | 90 | 1016.3 |
| 20260507053021 | 51 | 0 | 0.0 | 0.0 | 0.00 | 1.21 | 0.00 | 90 | 1016.2 |
| 20260507052821 | 51 | 0 | 0.0 | 0.0 | 0.00 | 1.21 | 0.00 | 90 | 1016.1 |
| 20260507052623 | 51 | 0 | 0.0 | 0.0 | 0.00 | 1.21 | 0.00 | 89 | 1016.1 |
| 20260507052421 | 51 | 0 | 0.0 | 0.0 | 0.00 | 1.21 | 0.00 | 89 | 1016.2 |
| 20260507052242 | 51 | 0 | 0.0 | 0.0 | 0.00 | 1.21 | 0.00 | 89 | 1016.3 |
| 20260507052021 | 51 | 0 | 0.0 | 0.0 | 0.00 | 1.21 | 0.00 | 89 | 1016.3 |
| 20260507051821 | 51 | 0 | 0.0 | 0.0 | 0.00 | 1.21 | 0.00 | 89 | 1016.2 |
| 20260507051622 | 51 | 0 | 0.0 | 0.0 | 0.00 | 1.21 | 0.00 | 89 | 1016.2 |
| 20260507051421 | 51 | 0 | 0.0 | 0.0 | 0.00 | 1.21 | 0.00 | 89 | 1016.3 |
| 20260507051242 | 51 | 0 | 0.0 | 0.0 | 0.00 | 1.21 | 0.00 | 89 | 1016.5 |
| 20260507051021 | 51 | 0 | 0.0 | 0.0 | 0.00 | 1.21 | 0.00 | 89 | 1016.5 |
| 20260507050821 | 51 | 0 | 0.0 | 0.0 | 0.00 | 1.21 | 0.00 | 89 | 1016.4 |
| 20260507050621 | 51 | 0 | 0.0 | 0.0 | 0.00 | 1.21 | 0.00 | 88 | 1016.4 |
| 20260507050442 | 51 | 0 | 0.0 | 0.0 | 0.00 | 1.21 | 0.00 | 88 | 1016.4 |
| 20260507050221 | 51 | 0 | 0.0 | 0.0 | 0.00 | 1.21 | 0.00 | 88 | 1016.5 |
| 20260507050042 | 51 | 0 | 0.0 | 0.0 | 0.00 | 1.21 | 0.00 | 88 | 1016.6 |
| 20260507045821 | 51 | 0 | 0.0 | 0.0 | 0.00 | 1.21 | 1.21 | 88 | 1016.7 |
| 20260507045621 | 52 | 0 | 0.0 | 0.0 | 0.00 | 1.21 | 1.21 | 88 | 1016.7 |
| 20260507045421 | 52 | 0 | 0.0 | 0.0 | 0.00 | 1.21 | 1.21 | 88 | 1016.6 |
| 20260507045222 | 52 | 0 | 0.0 | 0.0 | 0.00 | 1.21 | 1.21 | 88 | 1016.6 |
| 20260507045021 | 52 | 0 | 0.0 | 0.0 | 0.00 | 1.21 | 1.21 | 88 | 1016.6 |
| 20260507044842 | 52 | 0 | 0.0 | 0.0 | 0.01 | 1.21 | 1.21 | 88 | 1016.6 |
| 20260507044621 | 52 | 0 | 0.0 | 0.0 | 0.01 | 1.21 | 1.21 | 88 | 1016.5 |
| 20260507044421 | 52 | 0 | 0.0 | 0.0 | 0.01 | 1.21 | 1.21 | 88 | 1016.5 |
| 20260507044221 | 52 | 0 | 0.0 | 0.0 | 0.01 | 1.21 | 1.21 | 88 | 1016.4 |
| 20260507044021 | 52 | 0 | 0.0 | 0.0 | 0.01 | 1.21 | 1.21 | 88 | 1016.4 |
| 20260507043821 | 52 | 0 | 0.0 | 0.0 | 0.01 | 1.21 | 1.21 | 88 | 1016.3 |
| 20260507043621 | 52 | 0 | 0.0 | 0.0 | 0.01 | 1.21 | 1.21 | 88 | 1016.3 |
| 20260507043421 | 52 | 0 | 0.0 | 0.0 | 0.01 | 1.21 | 1.21 | 88 | 1016.3 |
| 20260507043221 | 52 | 0 | 0.0 | 0.0 | 0.01 | 1.21 | 1.21 | 88 | 1016.3 |
| 20260507043022 | 52 | 0 | 0.0 | 0.0 | 0.01 | 1.21 | 1.21 | 87 | 1016.4 |
| 20260507042843 | 52 | 0 | 0.0 | 0.0 | 0.01 | 1.21 | 1.21 | 87 | 1016.2 |
| 20260507042621 | 52 | 0 | 0.0 | 0.0 | 0.01 | 1.21 | 1.21 | 87 | 1016.2 |
| 20260507042421 | 52 | 0 | 0.0 | 0.0 | 0.01 | 1.21 | 1.21 | 87 | 1016.2 |
| 20260507042221 | 52 | 0 | 0.0 | 0.0 | 0.01 | 1.21 | 1.21 | 87 | 1016.2 |
| 20260507042021 | 52 | 0 | 0.0 | 0.0 | 0.01 | 1.21 | 1.21 | 87 | 1016.2 |
| 20260507041821 | 52 | 0 | 0.0 | 0.0 | 0.01 | 1.21 | 1.21 | 87 | 1016.2 |
| 20260507041622 | 52 | 0 | 0.0 | 0.0 | 0.01 | 1.21 | 1.21 | 87 | 1016.2 |
| 20260507041442 | 52 | 0 | 0.0 | 0.0 | 0.01 | 1.21 | 1.21 | 87 | 1016.1 |
| 20260507041221 | 52 | 0 | 0.0 | 0.0 | 0.01 | 1.21 | 1.21 | 87 | 1016.1 |
| 20260507041021 | 52 | 0 | 0.0 | 0.0 | 0.01 | 1.21 | 1.21 | 87 | 1016.0 |
| 20260507040842 | 52 | 44 | 0.0 | 1.0 | 0.01 | 1.21 | 1.21 | 87 | 1015.9 |
| 20260507040621 | 52 | 44 | 0.0 | 1.0 | 0.01 | 1.21 | 1.21 | 87 | 1015.7 |
| 20260507040442 | 52 | 44 | 0.0 | 1.0 | 0.01 | 1.21 | 1.21 | 87 | 1015.8 |
| 20260507040222 | 52 | 42 | 0.0 | 1.0 | 0.01 | 1.21 | 1.21 | 87 | 1015.7 |
| 20260507040021 | 52 | 35 | 0.0 | 2.0 | 0.01 | 1.21 | 1.21 | 87 | 1015.6 |
| 20260507035821 | 52 | 36 | 0.0 | 2.0 | 0.01 | 1.21 | 1.21 | 87 | 1015.7 |
| 20260507035621 | 52 | 37 | 0.0 | 2.0 | 0.01 | 1.21 | 1.21 | 87 | 1015.6 |
| 20260507035421 | 52 | 39 | 0.0 | 2.0 | 0.01 | 1.21 | 1.21 | 87 | 1015.7 |
| 20260507035221 | 52 | 39 | 0.0 | 2.0 | 0.01 | 1.21 | 1.21 | 88 | 1016.0 |
| 20260507035021 | 52 | 47 | 0.0 | 2.0 | 0.01 | 1.21 | 1.21 | 88 | 1015.9 |
| 20260507034821 | 52 | 51 | 0.0 | 2.0 | 0.00 | 1.20 | 1.20 | 88 | 1016.0 |
| 20260507034622 | 52 | 53 | 0.0 | 2.0 | 0.00 | 1.20 | 1.20 | 88 | 1016.0 |
| 20260507034443 | 52 | 60 | 0.0 | 2.0 | 0.00 | 1.20 | 1.20 | 88 | 1016.0 |
| 20260507034221 | 52 | 61 | 0.0 | 2.0 | 0.00 | 1.20 | 1.20 | 88 | 1016.0 |
| 20260507034021 | 52 | 70 | 0.0 | 1.0 | 0.00 | 1.20 | 1.20 | 88 | 1016.1 |
| 20260507033842 | 52 | 32 | 0.0 | 1.0 | 0.00 | 1.20 | 1.20 | 89 | 1016.3 |
| 20260507033642 | 52 | 14 | 0.0 | 1.0 | 0.00 | 1.20 | 1.20 | 89 | 1016.3 |
| 20260507033442 | 52 | 14 | 0.0 | 1.0 | 0.00 | 1.20 | 1.20 | 89 | 1016.4 |
| 20260507033221 | 52 | 14 | 0.0 | 1.0 | 0.00 | 1.21 | 1.20 | 89 | 1016.4 |
| 20260507033021 | 52 | 356 | 0.0 | 1.0 | 0.00 | 1.21 | 1.20 | 90 | 1016.4 |
| 20260507032821 | 52 | 331 | 0.0 | 1.0 | 0.00 | 1.21 | 1.20 | 90 | 1016.4 |
| 20260507032621 | 52 | 302 | 0.0 | 1.0 | 0.00 | 1.21 | 1.20 | 90 | 1016.3 |
| 20260507032421 | 52 | 302 | 0.0 | 1.0 | 0.00 | 1.21 | 1.20 | 91 | 1016.2 |
| 20260507032221 | 52 | 288 | 0.0 | 1.0 | 0.00 | 1.21 | 1.20 | 91 | 1016.2 |
| 20260507032042 | 52 | 288 | 0.0 | 1.0 | 0.00 | 1.21 | 1.20 | 91 | 1016.1 |
| 20260507031821 | 52 | 288 | 0.0 | 1.0 | 0.00 | 1.21 | 1.20 | 91 | 1016.1 |
| 20260507031642 | 52 | 0 | 0.0 | 0.0 | 0.00 | 1.21 | 1.20 | 91 | 1016.1 |
| 20260507031443 | 52 | 0 | 0.0 | 0.0 | 0.00 | 1.21 | 1.20 | 92 | 1016.0 |
| 20260507031221 | 52 | 9 | 0.0 | 1.0 | 0.00 | 1.21 | 1.20 | 92 | 1016.0 |
| 20260507031042 | 52 | 9 | 0.0 | 1.0 | 0.00 | 1.21 | 1.20 | 92 | 1015.8 |
| 20260507030821 | 52 | 9 | 0.0 | 1.0 | 0.01 | 1.21 | 1.20 | 92 | 1015.8 |
| 20260507030621 | 52 | 9 | 0.0 | 1.0 | 0.01 | 1.21 | 1.20 | 93 | 1015.7 |
| 20260507030421 | 52 | 0 | 0.0 | 0.0 | 0.01 | 1.21 | 1.20 | 93 | 1015.6 |
| 20260507030221 | 52 | 0 | 0.0 | 0.0 | 0.01 | 1.21 | 1.20 | 93 | 1015.6 |
| 20260507030021 | 52 | 0 | 0.0 | 0.0 | 0.01 | 1.21 | 1.20 | 94 | 1015.7 |
| 20260507025821 | 52 | 0 | 0.0 | 0.0 | 0.01 | 1.21 | 1.20 | 94 | 1015.9 |
| 20260507025622 | 52 | 0 | 0.0 | 0.0 | 0.01 | 1.21 | 1.20 | 94 | 1016.0 |
| 20260507025421 | 52 | 0 | 0.0 | 0.0 | 0.01 | 1.21 | 1.20 | 94 | 1016.0 |
| 20260507025221 | 52 | 0 | 0.0 | 0.0 | 0.01 | 1.21 | 1.20 | 94 | 1016.1 |
| 20260507025021 | 53 | 0 | 0.0 | 0.0 | 0.01 | 1.21 | 1.20 | 94 | 1016.2 |
| 20260507024821 | 53 | 0 | 0.0 | 0.0 | 0.01 | 1.21 | 1.20 | 94 | 1016.2 |
| 20260507024642 | 53 | 0 | 0.0 | 0.0 | 0.01 | 1.21 | 1.20 | 94 | 1016.3 |
| 20260507024421 | 53 | 0 | 0.0 | 0.0 | 0.01 | 1.21 | 1.20 | 94 | 1016.3 |
| 20260507024221 | 53 | 0 | 0.0 | 0.0 | 0.01 | 1.21 | 1.20 | 94 | 1016.4 |
| 20260507024021 | 53 | 0 | 0.0 | 0.0 | 0.01 | 1.21 | 1.20 | 94 | 1016.4 |
| 20260507023821 | 53 | 0 | 0.0 | 0.0 | 0.01 | 1.21 | 1.20 | 94 | 1016.3 |
| 20260507023621 | 53 | 0 | 0.0 | 0.0 | 0.01 | 1.21 | 1.20 | 94 | 1016.4 |
| 20260507023421 | 53 | 0 | 0.0 | 0.0 | 0.01 | 1.21 | 1.20 | 94 | 1016.3 |
| 20260507023221 | 53 | 0 | 0.0 | 0.0 | 0.01 | 1.21 | 1.20 | 94 | 1016.2 |
| 20260507023042 | 53 | 0 | 0.0 | 0.0 | 0.01 | 1.21 | 1.20 | 94 | 1016.3 |
| 20260507022821 | 53 | 0 | 0.0 | 0.0 | 0.01 | 1.21 | 1.20 | 94 | 1016.5 |
| 20260507022621 | 53 | 0 | 0.0 | 0.0 | 0.01 | 1.21 | 1.20 | 94 | 1016.4 |
| 20260507022422 | 53 | 0 | 0.0 | 0.0 | 0.01 | 1.21 | 1.20 | 94 | 1016.4 |
| 20260507022221 | 53 | 0 | 0.0 | 0.0 | 0.01 | 1.21 | 1.20 | 94 | 1016.4 |
| 20260507022021 | 53 | 0 | 0.0 | 0.0 | 0.01 | 1.21 | 1.20 | 94 | 1016.4 |
| 20260507021842 | 53 | 0 | 0.0 | 0.0 | 0.01 | 1.21 | 1.20 | 94 | 1016.4 |
| 20260507021621 | 53 | 0 | 0.0 | 0.0 | 0.01 | 1.21 | 1.20 | 94 | 1016.4 |
| 20260507021421 | 53 | 0 | 0.0 | 0.0 | 0.01 | 1.21 | 1.20 | 93 | 1016.4 |
| 20260507021221 | 53 | 0 | 0.0 | 0.0 | 0.01 | 1.21 | 1.20 | 93 | 1016.4 |
| 20260507021042 | 53 | 0 | 0.0 | 0.0 | 0.01 | 1.21 | 1.20 | 93 | 1016.5 |
| 20260507020822 | 53 | 0 | 0.0 | 0.0 | 0.00 | 1.20 | 1.19 | 93 | 1016.5 |
| 20260507020621 | 53 | 0 | 0.0 | 0.0 | 0.00 | 1.20 | 1.19 | 93 | 1016.5 |
| 20260507020421 | 54 | 0 | 0.0 | 0.0 | 0.00 | 1.20 | 1.19 | 93 | 1016.6 |
| 20260507020221 | 54 | 0 | 0.0 | 0.0 | 0.00 | 1.20 | 1.19 | 93 | 1016.6 |
| 20260507020021 | 54 | 0 | 0.0 | 0.0 | 0.00 | 1.20 | 1.19 | 93 | 1016.6 |
| 20260507015821 | 54 | 0 | 0.0 | 0.0 | 0.00 | 1.20 | 1.19 | 93 | 1016.6 |
| 20260507015621 | 54 | 0 | 0.0 | 0.0 | 0.00 | 1.20 | 1.19 | 93 | 1016.6 |
| 20260507015421 | 54 | 0 | 0.0 | 0.0 | 0.00 | 1.20 | 1.19 | 93 | 1016.6 |
| 20260507015221 | 54 | 0 | 0.0 | 0.0 | 0.00 | 1.20 | 1.19 | 93 | 1016.5 |
| 20260507015021 | 54 | 0 | 0.0 | 0.0 | 0.00 | 1.20 | 1.19 | 93 | 1016.5 |
| 20260507014821 | 54 | 0 | 0.0 | 0.0 | 0.00 | 1.20 | 1.19 | 93 | 1016.5 |
| 20260507014622 | 54 | 0 | 0.0 | 0.0 | 0.00 | 1.20 | 1.19 | 93 | 1016.7 |
| 20260507014421 | 54 | 0 | 0.0 | 0.0 | 0.00 | 1.20 | 1.19 | 92 | 1016.7 |
| 20260507014221 | 54 | 0 | 0.0 | 0.0 | 0.00 | 1.20 | 1.19 | 92 | 1016.6 |
| 20260507014021 | 54 | 0 | 0.0 | 0.0 | 0.00 | 1.20 | 1.19 | 92 | 1016.6 |
| 20260507013821 | 54 | 0 | 0.0 | 0.0 | 0.00 | 1.20 | 1.19 | 92 | 1016.6 |
| 20260507013642 | 54 | 0 | 0.0 | 0.0 | 0.00 | 1.20 | 1.19 | 92 | 1016.5 |
| 20260507013421 | 54 | 0 | 0.0 | 0.0 | 0.00 | 1.20 | 1.19 | 91 | 1016.5 |
| 20260507013242 | 54 | 270 | 0.0 | 1.0 | 0.01 | 1.20 | 1.19 | 91 | 1016.3 |
| 20260507013021 | 54 | 270 | 0.0 | 1.0 | 0.01 | 1.20 | 1.19 | 91 | 1016.1 |
| 20260507012842 | 54 | 270 | 0.0 | 1.0 | 0.01 | 1.20 | 1.19 | 91 | 1015.7 |
| 20260507012621 | 54 | 269 | 0.0 | 1.0 | 0.01 | 1.20 | 1.19 | 91 | 1015.6 |
| 20260507012421 | 54 | 270 | 0.0 | 1.0 | 0.01 | 1.20 | 1.19 | 91 | 1015.5 |
| 20260507012242 | 54 | 270 | 0.0 | 1.0 | 0.01 | 1.20 | 1.19 | 91 | 1015.4 |
| 20260507012021 | 54 | 270 | 0.0 | 1.0 | 0.01 | 1.20 | 1.19 | 91 | 1015.4 |
| 20260507011821 | 54 | 270 | 0.0 | 1.0 | 0.01 | 1.20 | 1.19 | 91 | 1015.6 |
| 20260507011621 | 54 | 272 | 0.0 | 1.0 | 0.01 | 1.20 | 1.19 | 92 | 1015.5 |
| 20260507011421 | 54 | 271 | 0.0 | 1.0 | 0.01 | 1.20 | 1.19 | 92 | 1015.6 |
| 20260507011221 | 54 | 271 | 0.0 | 1.0 | 0.01 | 1.20 | 1.19 | 92 | 1015.6 |
| 20260507011042 | 54 | 279 | 0.0 | 1.0 | 0.01 | 1.20 | 1.19 | 92 | 1015.3 |
| 20260507010821 | 54 | 279 | 0.0 | 1.0 | 0.01 | 1.20 | 1.19 | 93 | 1015.1 |
| 20260507010621 | 54 | 288 | 0.0 | 1.0 | 0.01 | 1.20 | 1.19 | 93 | 1015.1 |
| 20260507010421 | 54 | 359 | 0.0 | 1.0 | 0.01 | 1.20 | 1.19 | 93 | 1015.2 |
| 20260507010221 | 54 | 13 | 0.0 | 1.0 | 0.01 | 1.20 | 1.19 | 93 | 1015.1 |
| 20260507010021 | 54 | 13 | 0.0 | 1.0 | 0.01 | 1.20 | 1.19 | 93 | 1014.9 |
| 20260507005821 | 54 | 13 | 0.0 | 1.0 | 0.01 | 1.20 | 1.19 | 93 | 1014.9 |
| 20260507005621 | 54 | 0 | 0.0 | 0.0 | 0.01 | 1.20 | 1.19 | 93 | 1014.7 |
| 20260507005421 | 54 | 0 | 0.0 | 0.0 | 0.01 | 1.20 | 1.19 | 93 | 1014.7 |
| 20260507005221 | 54 | 0 | 0.0 | 0.0 | 0.01 | 1.20 | 1.19 | 93 | 1014.8 |
| 20260507005042 | 54 | 0 | 0.0 | 0.0 | 0.01 | 1.20 | 1.19 | 93 | 1014.8 |
| 20260507004842 | 54 | 0 | 0.0 | 0.0 | 0.01 | 1.20 | 1.19 | 93 | 1014.8 |
| 20260507004642 | 54 | 0 | 0.0 | 0.0 | 0.01 | 1.20 | 1.19 | 93 | 1014.8 |
| 20260507004421 | 54 | 0 | 0.0 | 0.0 | 0.01 | 1.20 | 1.19 | 93 | 1014.8 |
| 20260507004221 | 55 | 0 | 0.0 | 0.0 | 0.01 | 1.20 | 1.19 | 93 | 1014.6 |
| 20260507004021 | 55 | 0 | 0.0 | 0.0 | 0.01 | 1.20 | 1.19 | 93 | 1014.3 |
| 20260507003821 | 55 | 0 | 0.0 | 0.0 | 0.01 | 1.20 | 1.19 | 93 | 1014.3 |
| 20260507003623 | 55 | 0 | 0.0 | 0.0 | 0.01 | 1.20 | 1.19 | 93 | 1014.4 |
| 20260507003421 | 55 | 0 | 0.0 | 0.0 | 0.01 | 1.20 | 1.19 | 94 | 1014.4 |
| 20260507003221 | 55 | 19 | 0.0 | 1.0 | 0.00 | 1.19 | 1.18 | 94 | 1014.4 |
| 20260507003021 | 55 | 19 | 0.0 | 1.0 | 0.00 | 1.19 | 1.18 | 94 | 1014.6 |
| 20260507002821 | 55 | 19 | 0.0 | 1.0 | 0.00 | 1.19 | 1.18 | 94 | 1014.7 |
| 20260507002621 | 55 | 19 | 0.0 | 1.0 | 0.00 | 1.19 | 1.18 | 94 | 1014.6 |
| 20260507002421 | 55 | 19 | 0.0 | 1.0 | 0.00 | 1.19 | 1.18 | 94 | 1014.5 |
| 20260507002221 | 55 | 20 | 0.0 | 1.0 | 0.00 | 1.19 | 1.18 | 94 | 1014.2 |
| 20260507002021 | 55 | 20 | 0.0 | 1.0 | 0.00 | 1.19 | 1.18 | 93 | 1014.2 |
| 20260507001821 | 55 | 20 | 0.0 | 1.0 | 0.00 | 1.19 | 1.18 | 93 | 1014.4 |
| 20260507001622 | 55 | 20 | 0.0 | 1.0 | 0.00 | 1.19 | 1.18 | 93 | 1014.5 |
| 20260507001421 | 55 | 19 | 0.0 | 1.0 | 0.00 | 1.19 | 1.18 | 93 | 1014.5 |
| 20260507001221 | 55 | 17 | 0.0 | 1.0 | 0.00 | 1.19 | 1.18 | 93 | 1014.5 |
| 20260507001021 | 55 | 14 | 0.0 | 1.0 | 0.00 | 1.19 | 1.18 | 93 | 1014.4 |
| 20260507000821 | 55 | 14 | 0.0 | 1.0 | 0.00 | 1.19 | 1.18 | 93 | 1014.2 |
| 20260507000621 | 55 | 358 | 0.0 | 1.0 | 0.00 | 1.19 | 1.18 | 93 | 1014.2 |
| 20260507000421 | 55 | 327 | 0.0 | 1.0 | 0.00 | 1.19 | 1.18 | 93 | 1014.3 |
| 20260507000221 | 55 | 308 | 0.0 | 1.0 | 0.00 | 1.19 | 1.18 | 93 | 1014.3 |
| 20260507000022 | 55 | 276 | 0.0 | 1.0 | 0.01 | 1.19 | 1.18 | 93 | 1014.2 |
| 20260506235821 | 55 | 276 | 0.0 | 1.0 | 0.01 | 1.19 | 1.18 | 93 | 1014.5 |
| 20260506235621 | 55 | 277 | 0.0 | 1.0 | 0.01 | 1.19 | 1.18 | 93 | 1014.4 |
| 20260506235421 | 55 | 280 | 0.0 | 1.0 | 0.01 | 1.19 | 1.18 | 93 | 1014.0 |
| 20260506235221 | 55 | 280 | 0.0 | 1.0 | 0.01 | 1.19 | 1.18 | 93 | 1013.9 |
| 20260506235021 | 55 | 280 | 0.0 | 1.0 | 0.01 | 1.19 | 1.18 | 93 | 1014.0 |
| 20260506234821 | 55 | 280 | 0.0 | 1.0 | 0.01 | 1.19 | 1.18 | 93 | 1014.5 |
| 20260506234621 | 55 | 0 | 0.0 | 0.0 | 0.01 | 1.19 | 1.18 | 93 | 1014.9 |
| 20260506234421 | 55 | 281 | 0.0 | 1.0 | 0.01 | 1.19 | 1.18 | 92 | 1015.2 |
| 20260506234242 | 55 | 281 | 0.0 | 1.0 | 0.01 | 1.19 | 1.18 | 92 | 1015.1 |
| 20260506234042 | 55 | 281 | 0.0 | 1.0 | 0.01 | 1.19 | 1.18 | 92 | 1014.9 |
| 20260506233822 | 55 | 281 | 0.0 | 1.0 | 0.01 | 1.19 | 1.18 | 92 | 1014.9 |
| 20260506233621 | 55 | 280 | 0.0 | 1.0 | 0.01 | 1.19 | 1.18 | 92 | 1015.1 |
| 20260506233442 | 55 | 280 | 0.0 | 1.0 | 0.01 | 1.19 | 1.18 | 92 | 1015.4 |
| 20260506233221 | 55 | 280 | 0.0 | 1.0 | 0.01 | 1.19 | 1.18 | 92 | 1015.6 |
| 20260506233021 | 55 | 280 | 0.0 | 1.0 | 0.01 | 1.19 | 1.18 | 92 | 1015.9 |
| 20260506232821 | 55 | 280 | 0.0 | 1.0 | 0.01 | 1.19 | 1.18 | 92 | 1016.0 |
| 20260506232621 | 55 | 280 | 0.0 | 1.0 | 0.01 | 1.19 | 1.18 | 92 | 1016.0 |
| 20260506232442 | 55 | 280 | 0.0 | 1.0 | 0.01 | 1.19 | 1.18 | 92 | 1016.1 |
| 20260506232242 | 56 | 280 | 0.0 | 1.0 | 0.01 | 1.19 | 1.18 | 92 | 1015.8 |
| 20260506232021 | 56 | 280 | 0.0 | 1.0 | 0.01 | 1.19 | 1.18 | 92 | 1015.4 |
| 20260506231821 | 56 | 280 | 0.0 | 1.0 | 0.01 | 1.19 | 1.18 | 92 | 1015.0 |
| 20260506231642 | 56 | 280 | 0.0 | 1.0 | 0.01 | 1.19 | 1.18 | 92 | 1014.8 |
| 20260506231421 | 56 | 280 | 0.0 | 1.0 | 0.01 | 1.19 | 1.18 | 91 | 1014.7 |
| 20260506231242 | 56 | 280 | 0.0 | 1.0 | 0.01 | 1.19 | 1.18 | 91 | 1014.6 |
| 20260506231021 | 56 | 0 | 0.0 | 0.0 | 0.01 | 1.19 | 1.18 | 91 | 1014.7 |
| 20260506230842 | 56 | 0 | 0.0 | 0.0 | 0.01 | 1.19 | 1.18 | 91 | 1014.9 |
| 20260506230621 | 56 | 281 | 0.0 | 1.0 | 0.01 | 1.19 | 1.18 | 91 | 1014.9 |
| 20260506230421 | 56 | 281 | 0.0 | 1.0 | 0.01 | 1.19 | 1.18 | 91 | 1015.0 |
| 20260506230221 | 56 | 284 | 0.0 | 2.0 | 0.01 | 1.19 | 1.18 | 91 | 1015.2 |
| 20260506230021 | 56 | 285 | 0.0 | 2.0 | 0.00 | 1.18 | 1.17 | 91 | 1015.2 |
| 20260506225843 | 56 | 285 | 0.0 | 2.0 | 0.00 | 1.18 | 1.17 | 91 | 1015.4 |
| 20260506225642 | 56 | 286 | 0.0 | 2.0 | 0.00 | 1.18 | 1.17 | 91 | 1015.2 |
| 20260506225421 | 56 | 286 | 0.0 | 2.0 | 0.00 | 1.18 | 1.17 | 91 | 1015.3 |
| 20260506225221 | 56 | 292 | 0.0 | 1.0 | 0.00 | 1.18 | 1.17 | 90 | 1015.2 |
| 20260506225021 | 56 | 291 | 0.0 | 1.0 | 0.00 | 1.18 | 1.17 | 90 | 1014.9 |
| 20260506224821 | 56 | 291 | 0.0 | 1.0 | 0.00 | 1.18 | 1.17 | 90 | 1015.0 |
| 20260506224622 | 56 | 291 | 0.0 | 1.0 | 0.00 | 1.18 | 1.17 | 90 | 1015.1 |
| 20260506224421 | 56 | 291 | 0.0 | 1.0 | 0.00 | 1.18 | 1.17 | 90 | 1015.1 |
| 20260506224221 | 56 | 291 | 0.0 | 1.0 | 0.00 | 1.18 | 1.17 | 90 | 1015.2 |
| 20260506224043 | 56 | 291 | 0.0 | 1.0 | 0.01 | 1.18 | 1.17 | 90 | 1015.5 |
| 20260506223821 | 56 | 291 | 0.0 | 1.0 | 0.01 | 1.18 | 1.17 | 89 | 1015.4 |
| 20260506223621 | 56 | 291 | 0.0 | 1.0 | 0.01 | 1.18 | 1.17 | 88 | 1015.0 |
| 20260506223442 | 56 | 291 | 0.0 | 1.0 | 0.01 | 1.18 | 1.17 | 88 | 1014.8 |
| 20260506223221 | 56 | 291 | 0.0 | 1.0 | 0.01 | 1.18 | 1.17 | 88 | 1015.2 |
| 20260506223021 | 57 | 287 | 0.0 | 2.0 | 0.01 | 1.18 | 1.17 | 88 | 1015.1 |
| 20260506222821 | 57 | 287 | 0.0 | 2.0 | 0.01 | 1.18 | 1.17 | 88 | 1014.7 |
| 20260506222621 | 57 | 287 | 0.0 | 2.0 | 0.01 | 1.18 | 1.17 | 87 | 1014.6 |
| 20260506222421 | 57 | 286 | 0.0 | 2.0 | 0.01 | 1.18 | 1.17 | 87 | 1014.6 |
| 20260506222221 | 57 | 284 | 0.0 | 2.0 | 0.01 | 1.18 | 1.17 | 87 | 1014.7 |
| 20260506222021 | 57 | 282 | 0.0 | 1.0 | 0.01 | 1.18 | 1.17 | 87 | 1014.9 |
| 20260506221821 | 57 | 287 | 0.0 | 1.0 | 0.01 | 1.18 | 1.17 | 86 | 1014.7 |
| 20260506221621 | 57 | 286 | 0.0 | 1.0 | 0.01 | 1.18 | 1.17 | 86 | 1014.5 |
| 20260506221421 | 57 | 272 | 0.0 | 2.0 | 0.01 | 1.18 | 1.17 | 86 | 1014.4 |
| 20260506221221 | 57 | 250 | 0.0 | 2.0 | 0.01 | 1.18 | 1.17 | 87 | 1014.3 |
| 20260506221042 | 57 | 255 | 0.0 | 2.0 | 0.01 | 1.18 | 1.17 | 87 | 1014.0 |
| 20260506220821 | 57 | 280 | 0.0 | 2.0 | 0.01 | 1.18 | 1.17 | 87 | 1014.5 |
| 20260506220621 | 57 | 280 | 0.0 | 2.0 | 0.01 | 1.18 | 1.17 | 87 | 1015.0 |
| 20260506220442 | 57 | 286 | 0.0 | 2.0 | 0.01 | 1.18 | 1.17 | 87 | 1014.8 |
| 20260506220221 | 57 | 274 | 0.0 | 2.0 | 0.01 | 1.18 | 1.17 | 87 | 1015.3 |
| 20260506220022 | 57 | 273 | 0.0 | 2.0 | 0.01 | 1.18 | 1.17 | 87 | 1015.6 |
| 20260506215821 | 57 | 266 | 0.0 | 2.0 | 0.01 | 1.18 | 1.17 | 87 | 1014.9 |
| 20260506215621 | 58 | 266 | 0.0 | 2.0 | 0.01 | 1.18 | 1.17 | 87 | 1014.8 |
| 20260506215421 | 58 | 270 | 0.0 | 2.0 | 0.01 | 1.18 | 1.17 | 87 | 1014.7 |
| 20260506215221 | 58 | 286 | 0.0 | 2.0 | 0.01 | 1.18 | 1.17 | 87 | 1014.3 |
| 20260506215042 | 58 | 287 | 0.0 | 2.0 | 0.01 | 1.18 | 1.17 | 88 | 1014.4 |
| 20260506214821 | 58 | 317 | 0.0 | 1.0 | 0.01 | 1.18 | 1.17 | 89 | 1014.2 |
| 20260506214621 | 58 | 322 | 0.0 | 1.0 | 0.01 | 1.18 | 1.17 | 89 | 1014.4 |
| 20260506214421 | 58 | 322 | 0.0 | 1.0 | 0.01 | 1.18 | 1.17 | 89 | 1014.5 |
| 20260506214221 | 58 | 327 | 0.0 | 1.0 | 0.01 | 1.18 | 1.17 | 89 | 1014.7 |
| 20260506214042 | 58 | 338 | 0.0 | 1.0 | 0.00 | 1.17 | 1.16 | 89 | 1015.0 |
| 20260506213821 | 58 | 338 | 0.0 | 1.0 | 0.00 | 1.17 | 1.16 | 89 | 1015.0 |
| 20260506213621 | 58 | 0 | 0.0 | 0.0 | 0.00 | 1.17 | 1.16 | 88 | 1014.8 |
| 20260506213442 | 58 | 0 | 0.0 | 0.0 | 0.00 | 1.17 | 1.16 | 88 | 1014.7 |
| 20260506213221 | 58 | 0 | 0.0 | 0.0 | 0.00 | 1.17 | 1.16 | 88 | 1014.5 |
| 20260506213021 | 58 | 0 | 0.0 | 0.0 | 0.00 | 1.17 | 1.16 | 88 | 1014.3 |
| 20260506212821 | 58 | 0 | 0.0 | 0.0 | 0.00 | 1.17 | 1.16 | 87 | 1014.1 |
| 20260506212642 | 58 | 0 | 0.0 | 0.0 | 0.00 | 1.17 | 1.16 | 86 | 1013.9 |
| 20260506212421 | 58 | 0 | 0.0 | 0.0 | 0.00 | 1.17 | 1.16 | 87 | 1013.7 |
| 20260506212221 | 58 | 0 | 0.0 | 0.0 | 0.01 | 1.17 | 1.16 | 87 | 1013.7 |
| 20260506212021 | 59 | 0 | 0.0 | 0.0 | 0.01 | 1.17 | 1.16 | 86 | 1013.6 |
| 20260506211821 | 58 | 0 | 0.0 | 0.0 | 0.01 | 1.17 | 1.16 | 86 | 1013.4 |
| 20260506211621 | 59 | 0 | 0.0 | 0.0 | 0.01 | 1.17 | 1.16 | 86 | 1013.4 |
| 20260506211443 | 59 | 0 | 0.0 | 0.0 | 0.01 | 1.17 | 1.16 | 86 | 1013.5 |
| 20260506211221 | 59 | 0 | 0.0 | 0.0 | 0.01 | 1.17 | 1.16 | 86 | 1013.6 |
| 20260506211021 | 59 | 0 | 0.0 | 0.0 | 0.01 | 1.17 | 1.16 | 85 | 1013.7 |
| 20260506210842 | 59 | 0 | 0.0 | 0.0 | 0.01 | 1.17 | 1.16 | 85 | 1013.9 |
| 20260506210621 | 59 | 0 | 0.0 | 0.0 | 0.01 | 1.17 | 1.16 | 84 | 1013.9 |
| 20260506210442 | 59 | 0 | 0.0 | 0.0 | 0.01 | 1.17 | 1.16 | 84 | 1014.0 |
| 20260506210221 | 59 | 0 | 0.0 | 0.0 | 0.01 | 1.17 | 1.16 | 84 | 1014.0 |
| 20260506210021 | 59 | 0 | 0.0 | 0.0 | 0.01 | 1.17 | 1.16 | 83 | 1014.0 |
| 20260506205821 | 59 | 0 | 0.0 | 0.0 | 0.01 | 1.17 | 1.16 | 83 | 1014.0 |
| 20260506205643 | 59 | 0 | 0.0 | 0.0 | 0.01 | 1.17 | 1.16 | 83 | 1013.8 |
| 20260506205421 | 59 | 23 | 0.0 | 1.0 | 0.01 | 1.17 | 1.16 | 82 | 1013.9 |
| 20260506205221 | 59 | 23 | 0.0 | 1.0 | 0.01 | 1.17 | 1.16 | 82 | 1014.0 |
| 20260506205021 | 59 | 337 | 0.0 | 2.0 | 0.01 | 1.17 | 1.16 | 82 | 1014.1 |
| 20260506204821 | 59 | 339 | 0.0 | 2.0 | 0.01 | 1.17 | 1.16 | 81 | 1014.2 |
| 20260506204621 | 59 | 348 | 0.0 | 2.0 | 0.01 | 1.17 | 1.16 | 81 | 1014.5 |
| 20260506204421 | 59 | 322 | 0.0 | 2.0 | 0.01 | 1.17 | 1.16 | 81 | 1014.6 |
| 20260506204221 | 59 | 297 | 0.0 | 2.0 | 0.01 | 1.17 | 1.16 | 82 | 1014.7 |
| 20260506204044 | 59 | 286 | 0.0 | 2.0 | 0.01 | 1.17 | 1.16 | 82 | 1014.8 |
| 20260506203822 | 59 | 284 | 0.0 | 2.0 | 0.01 | 1.17 | 1.16 | 81 | 1014.7 |
| 20260506203621 | 59 | 278 | 0.0 | 2.0 | 0.01 | 1.17 | 1.16 | 81 | 1014.5 |
| 20260506203421 | 59 | 278 | 0.0 | 2.0 | 0.01 | 1.17 | 1.16 | 80 | 1014.7 |
| 20260506203221 | 59 | 275 | 0.0 | 1.0 | 0.01 | 1.17 | 1.16 | 80 | 1014.7 |
| 20260506203021 | 59 | 276 | 0.0 | 2.0 | 0.01 | 1.17 | 1.16 | 80 | 1014.6 |
| 20260506202821 | 59 | 277 | 0.0 | 2.0 | 0.01 | 1.17 | 1.16 | 80 | 1014.7 |
| 20260506202622 | 59 | 279 | 0.0 | 2.0 | 0.01 | 1.17 | 1.16 | 80 | 1014.8 |
| 20260506202421 | 59 | 279 | 0.0 | 2.0 | 0.01 | 1.17 | 1.16 | 80 | 1014.9 |
| 20260506202242 | 59 | 276 | 1.0 | 3.0 | 0.00 | 1.16 | 1.15 | 80 | 1015.0 |
| 20260506202021 | 60 | 274 | 1.0 | 3.0 | 0.00 | 1.16 | 1.15 | 80 | 1015.0 |
| 20260506201821 | 60 | 272 | 1.0 | 3.0 | 0.00 | 1.16 | 1.15 | 80 | 1015.0 |
| 20260506201621 | 60 | 274 | 1.0 | 3.0 | 0.00 | 1.16 | 1.15 | 79 | 1014.9 |
| 20260506201442 | 60 | 274 | 1.0 | 3.0 | 0.01 | 1.16 | 1.15 | 79 | 1014.6 |
| 20260506201242 | 60 | 274 | 1.0 | 3.0 | 0.01 | 1.16 | 1.15 | 79 | 1014.6 |
| 20260506201042 | 60 | 277 | 1.0 | 3.0 | 0.01 | 1.16 | 1.15 | 79 | 1014.7 |
| 20260506200821 | 60 | 278 | 1.0 | 3.0 | 0.01 | 1.16 | 1.15 | 78 | 1014.6 |
| 20260506200621 | 60 | 286 | 1.0 | 3.0 | 0.01 | 1.16 | 1.15 | 79 | 1014.5 |
| 20260506200421 | 60 | 317 | 0.0 | 3.0 | 0.01 | 1.16 | 1.15 | 78 | 1014.2 |
| 20260506200221 | 60 | 355 | 0.0 | 3.0 | 0.01 | 1.16 | 1.15 | 78 | 1014.2 |
| 20260506200021 | 60 | 26 | 0.0 | 3.0 | 0.01 | 1.16 | 1.15 | 78 | 1014.1 |
| 20260506195821 | 60 | 25 | 0.0 | 3.0 | 0.01 | 1.16 | 1.15 | 78 | 1014.0 |
| 20260506195621 | 61 | 21 | 0.0 | 3.0 | 0.01 | 1.16 | 1.15 | 78 | 1013.9 |
| 20260506195422 | 61 | 20 | 0.0 | 3.0 | 0.01 | 1.16 | 1.15 | 78 | 1013.9 |
| 20260506195221 | 61 | 7 | 0.0 | 2.0 | 0.01 | 1.16 | 1.15 | 78 | 1014.0 |
| 20260506195042 | 61 | 355 | 0.0 | 2.0 | 0.01 | 1.16 | 1.15 | 77 | 1014.1 |
| 20260506194821 | 61 | 8 | 0.0 | 2.0 | 0.01 | 1.16 | 1.15 | 77 | 1014.3 |
| 20260506194621 | 61 | 3 | 0.0 | 2.0 | 0.01 | 1.16 | 1.15 | 77 | 1014.6 |
| 20260506194421 | 61 | 356 | 0.0 | 2.0 | 0.01 | 1.16 | 1.15 | 78 | 1014.6 |
| 20260506194221 | 61 | 315 | 0.0 | 2.0 | 0.01 | 1.16 | 1.15 | 77 | 1014.7 |
| 20260506194021 | 61 | 357 | 0.0 | 2.0 | 0.01 | 1.16 | 1.15 | 76 | 1014.7 |
| 20260506193821 | 61 | 349 | 0.0 | 2.0 | 0.01 | 1.16 | 1.15 | 76 | 1014.5 |
| 20260506193621 | 61 | 319 | 0.0 | 2.0 | 0.01 | 1.16 | 1.15 | 75 | 1014.3 |
| 20260506193443 | 61 | 298 | 0.0 | 2.0 | 0.01 | 1.16 | 1.15 | 75 | 1014.3 |
| 20260506193221 | 61 | 294 | 0.0 | 2.0 | 0.01 | 1.16 | 1.15 | 75 | 1014.4 |
| 20260506193042 | 62 | 265 | 0.0 | 1.0 | 0.01 | 1.16 | 1.15 | 74 | 1014.5 |
| 20260506192821 | 62 | 265 | 1.0 | 1.0 | 0.01 | 1.16 | 1.15 | 74 | 1014.6 |
| 20260506192621 | 62 | 265 | 1.0 | 1.0 | 0.01 | 1.16 | 1.15 | 74 | 1014.6 |
| 20260506192421 | 62 | 277 | 1.0 | 4.0 | 0.01 | 1.16 | 1.15 | 74 | 1014.7 |
| 20260506192242 | 62 | 280 | 1.0 | 4.0 | 0.02 | 1.16 | 1.15 | 74 | 1014.7 |
| 20260506192021 | 62 | 280 | 0.0 | 4.0 | 0.02 | 1.16 | 1.15 | 75 | 1014.7 |
| 20260506191822 | 62 | 280 | 0.0 | 4.0 | 0.02 | 1.16 | 1.15 | 75 | 1014.7 |
| 20260506191621 | 62 | 279 | 0.0 | 4.0 | 0.02 | 1.16 | 1.15 | 74 | 1014.7 |
| 20260506191421 | 62 | 280 | 0.0 | 3.0 | 0.01 | 1.15 | 1.14 | 75 | 1014.6 |
| 20260506191221 | 62 | 279 | 0.0 | 2.0 | 0.01 | 1.15 | 1.14 | 75 | 1014.4 |
| 20260506191021 | 62 | 279 | 0.0 | 2.0 | 0.01 | 1.15 | 1.14 | 75 | 1014.4 |
| 20260506190822 | 62 | 279 | 0.0 | 1.0 | 0.01 | 1.15 | 1.14 | 75 | 1014.6 |
| 20260506190621 | 62 | 284 | 0.0 | 1.0 | 0.01 | 1.15 | 1.14 | 74 | 1014.7 |
| 20260506190421 | 62 | 319 | 0.0 | 1.0 | 0.01 | 1.15 | 1.14 | 75 | 1014.7 |
| 20260506190221 | 62 | 332 | 0.0 | 1.0 | 0.01 | 1.15 | 1.14 | 75 | 1014.7 |
| 20260506190021 | 62 | 334 | 0.0 | 1.0 | 0.01 | 1.15 | 1.14 | 74 | 1014.7 |
| 20260506185821 | 62 | 354 | 0.0 | 1.0 | 0.01 | 1.15 | 1.14 | 76 | 1014.7 |
| 20260506185621 | 62 | 17 | 0.0 | 1.0 | 0.01 | 1.15 | 1.14 | 75 | 1014.9 |
| 20260506185421 | 62 | 322 | 0.0 | 1.0 | 0.01 | 1.15 | 1.14 | 75 | 1015.0 |
| 20260506185221 | 62 | 277 | 0.0 | 3.0 | 0.01 | 1.15 | 1.14 | 74 | 1015.1 |
| 20260506185044 | 62 | 355 | 0.0 | 3.0 | 0.01 | 1.15 | 1.14 | 75 | 1014.9 |
| 20260506184821 | 62 | 10 | 0.0 | 3.0 | 0.01 | 1.15 | 1.14 | 75 | 1014.9 |
| 20260506184623 | 62 | 355 | 0.0 | 3.0 | 0.01 | 1.15 | 1.14 | 74 | 1014.9 |
| 20260506184422 | 62 | 351 | 0.0 | 3.0 | 0.01 | 1.15 | 1.14 | 74 | 1014.9 |
| 20260506184221 | 62 | 14 | 0.0 | 3.0 | 0.01 | 1.15 | 1.14 | 74 | 1014.9 |
| 20260506184021 | 62 | 357 | 0.0 | 2.0 | 0.01 | 1.15 | 1.14 | 74 | 1014.9 |
| 20260506183821 | 62 | 354 | 0.0 | 2.0 | 0.01 | 1.15 | 1.14 | 75 | 1014.9 |
| 20260506183642 | 62 | 1 | 0.0 | 2.0 | 0.01 | 1.15 | 1.14 | 76 | 1014.8 |
| 20260506183421 | 62 | 17 | 0.0 | 2.0 | 0.01 | 1.15 | 1.14 | 75 | 1014.8 |
| 20260506183223 | 62 | 22 | 0.0 | 2.0 | 0.02 | 1.15 | 1.14 | 75 | 1014.8 |
| 20260506183042 | 62 | 39 | 1.0 | 2.0 | 0.02 | 1.15 | 1.14 | 76 | 1014.7 |
| 20260506182821 | 62 | 35 | 1.0 | 2.0 | 0.02 | 1.15 | 1.14 | 76 | 1014.6 |
| 20260506182621 | 62 | 38 | 1.0 | 3.0 | 0.02 | 1.15 | 1.14 | 77 | 1014.5 |
| 20260506182421 | 62 | 40 | 1.0 | 4.0 | 0.02 | 1.15 | 1.14 | 77 | 1014.3 |